Wetterdaten: aktuell Samstag, 03.06.2023 17:36
Datum Zeit Temp. I. Temp. 2m Temp. 5cm Temp. -10cm Feuchte I. Feuchte 2m Luftdruck Regen Wind Richtung Richtung Taupunkt Windchill Windben
03.06.2023 17:36 20,4 C 23,1 C 22,8 C 23,7 C 56 % 45 % 1024,6 hPa 0,0 l/m 4,5 km/h (1 Bft) O-NO 67 10,5 C 23,1 C 7,3 km/h (2 Bft)
03.06.2023 17:34 20,4 C 23,1 C 22,9 C 23,7 C 56 % 45 % 1024,6 hPa 0,0 l/m 4,5 km/h (1 Bft) O-NO 67 10,5 C 23,1 C 9,7 km/h (2 Bft)
03.06.2023 17:32 20,4 C 23,2 C 23,0 C 23,7 C 56 % 45 % 1024,6 hPa 0,0 l/m 4,7 km/h (1 Bft) O 90 10,6 C 23,2 C 9,7 km/h (2 Bft)
03.06.2023 17:30 20,4 C 23,2 C 23,6 C 23,7 C 56 % 47 % 1024,6 hPa 0,0 l/m 4,2 km/h (1 Bft) NO 45 11,3 C 23,2 C 7,1 km/h (2 Bft)
03.06.2023 17:28 20,4 C 23,2 C 23,5 C 23,7 C 56 % 46 % 1024,6 hPa 0,0 l/m 4,2 km/h (1 Bft) N-NO 22 10,9 C 23,2 C 5,0 km/h (1 Bft)
03.06.2023 17:26 20,4 C 23,2 C 23,4 C 23,7 C 56 % 46 % 1024,8 hPa 0,0 l/m 4,7 km/h (1 Bft) O-NO 67 10,9 C 23,2 C 6,4 km/h (2 Bft)
03.06.2023 17:24 20,4 C 23,1 C 23,3 C 23,7 C 56 % 46 % 1024,8 hPa 0,0 l/m 4,8 km/h (1 Bft) NO 45 10,8 C 23,1 C 8,9 km/h (2 Bft)
03.06.2023 17:22 20,4 C 23,1 C 23,5 C 23,7 C 56 % 46 % 1024,8 hPa 0,0 l/m 4,8 km/h (1 Bft) O-SO 112 10,8 C 23,1 C 8,9 km/h (2 Bft)
03.06.2023 17:20 20,4 C 23,1 C 23,4 C 23,7 C 56 % 45 % 1024,8 hPa 0,0 l/m 5,5 km/h (1 Bft) O-NO 67 10,5 C 23,1 C 7,3 km/h (2 Bft)
03.06.2023 17:18 20,4 C 23,1 C 23,4 C 23,7 C 56 % 45 % 1024,8 hPa 0,0 l/m 5,6 km/h (1 Bft) NO 45 10,5 C 23,1 C 7,3 km/h (2 Bft)
03.06.2023 17:16 20,4 C 23,1 C 23,1 C 23,7 C 56 % 46 % 1024,8 hPa 0,0 l/m 5,8 km/h (2 Bft) NO 45 10,8 C 23,1 C 9,3 km/h (2 Bft)
03.06.2023 17:14 20,4 C 23,1 C 22,9 C 23,7 C 55 % 44 % 1024,8 hPa 0,0 l/m 6,4 km/h (2 Bft) O 90 10,2 C 23,1 C 10,0 km/h (2 Bft)
03.06.2023 17:12 20,4 C 23,1 C 23,1 C 23,7 C 56 % 45 % 1024,8 hPa 0,0 l/m 6,9 km/h (2 Bft) O 90 10,5 C 22,9 C 10,0 km/h (2 Bft)
03.06.2023 17:10 20,4 C 23,1 C 23,0 C 23,7 C 55 % 44 % 1024,8 hPa 0,0 l/m 7,1 km/h (2 Bft) O-NO 67 10,2 C 22,9 C 7,7 km/h (2 Bft)
03.06.2023 17:08 20,4 C 23,2 C 23,3 C 23,7 C 56 % 46 % 1024,8 hPa 0,0 l/m 6,6 km/h (2 Bft) O-SO 112 10,9 C 23,1 C 8,1 km/h (2 Bft)
03.06.2023 17:06 20,4 C 23,1 C 23,4 C 23,7 C 55 % 46 % 1024,6 hPa 0,0 l/m 6,4 km/h (2 Bft) O-NO 67 10,8 C 23,1 C 17,0 km/h (3 Bft)
03.06.2023 17:04 20,4 C 23,1 C 23,5 C 23,7 C 55 % 45 % 1024,6 hPa 0,0 l/m 6,3 km/h (2 Bft) O-SO 112 10,5 C 23,1 C 17,0 km/h (3 Bft)
03.06.2023 17:02 20,4 C 23,1 C 23,5 C 23,7 C 55 % 45 % 1024,6 hPa 0,0 l/m 5,6 km/h (1 Bft) SO 135 10,5 C 23,1 C 15,6 km/h (3 Bft)
03.06.2023 17:00 20,4 C 23,1 C 23,6 C 23,7 C 55 % 46 % 1024,6 hPa 0,0 l/m 5,1 km/h (1 Bft) N-NO 22 10,8 C 23,1 C 9,3 km/h (2 Bft)
03.06.2023 16:58 20,4 C 23,1 C 24,0 C 23,7 C 55 % 46 % 1024,6 hPa 0,0 l/m 5,0 km/h (1 Bft) O-NO 67 10,8 C 23,1 C 9,3 km/h (2 Bft)
03.06.2023 16:56 20,4 C 23,1 C 24,0 C 23,7 C 55 % 46 % 1024,6 hPa 0,0 l/m 5,1 km/h (1 Bft) N-NO 22 10,8 C 23,1 C 4,8 km/h (1 Bft)
03.06.2023 16:54 20,4 C 23,2 C 23,8 C 23,7 C 55 % 47 % 1024,6 hPa 0,0 l/m 4,8 km/h (1 Bft) NO 45 11,3 C 23,2 C 8,5 km/h (2 Bft)
03.06.2023 16:52 20,4 C 23,1 C 23,5 C 23,7 C 55 % 45 % 1024,6 hPa 0,0 l/m 4,8 km/h (1 Bft) O-NO 67 10,5 C 23,1 C 8,5 km/h (2 Bft)
03.06.2023 16:50 20,4 C 23,2 C 23,6 C 23,7 C 55 % 45 % 1024,6 hPa 0,0 l/m 5,0 km/h (1 Bft) O-NO 67 10,6 C 23,2 C 7,0 km/h (2 Bft)
03.06.2023 16:48 20,4 C 23,2 C 23,4 C 23,6 C 55 % 45 % 1024,6 hPa 0,0 l/m 4,8 km/h (1 Bft) O-NO 67 10,6 C 23,2 C 7,0 km/h (2 Bft)
03.06.2023 16:46 20,4 C 23,2 C 23,5 C 23,6 C 55 % 44 % 1024,6 hPa 0,0 l/m 5,5 km/h (1 Bft) O-SO 112 10,3 C 23,2 C 7,3 km/h (2 Bft)
03.06.2023 16:44 20,4 C 23,4 C 24,0 C 23,6 C 55 % 46 % 1024,6 hPa 0,0 l/m 5,6 km/h (1 Bft) O-NO 67 11,1 C 23,4 C 7,3 km/h (2 Bft)
03.06.2023 16:42 20,4 C 23,3 C 23,9 C 23,6 C 55 % 47 % 1024,6 hPa 0,0 l/m 6,1 km/h (2 Bft) N-NO 22 11,3 C 23,3 C 11,6 km/h (2 Bft)
03.06.2023 16:40 20,4 C 23,1 C 23,8 C 23,6 C 55 % 45 % 1024,6 hPa 0,0 l/m 6,6 km/h (2 Bft) O-NO 67 10,5 C 23,0 C 11,6 km/h (2 Bft)
03.06.2023 16:38 20,4 C 23,0 C 23,3 C 23,6 C 55 % 45 % 1024,6 hPa 0,0 l/m 6,9 km/h (2 Bft) O-NO 67 10,4 C 22,8 C 9,8 km/h (2 Bft)
03.06.2023 16:36 20,4 C 23,1 C 23,5 C 23,6 C 55 % 44 % 1024,6 hPa 0,0 l/m 7,4 km/h (2 Bft) O 90 10,2 C 22,8 C 9,8 km/h (2 Bft)
03.06.2023 16:34 20,4 C 23,2 C 23,5 C 23,6 C 55 % 46 % 1024,6 hPa 0,0 l/m 7,4 km/h (2 Bft) O-NO 67 10,9 C 22,9 C 10,8 km/h (2 Bft)
03.06.2023 16:32 20,4 C 23,2 C 23,4 C 23,6 C 55 % 44 % 1024,6 hPa 0,0 l/m 7,1 km/h (2 Bft) O-NO 67 10,3 C 23,0 C 10,8 km/h (2 Bft)
03.06.2023 16:30 20,4 C 23,4 C 23,5 C 23,6 C 55 % 45 % 1024,6 hPa 0,0 l/m 7,1 km/h (2 Bft) O-NO 67 10,8 C 23,2 C 10,6 km/h (2 Bft)
03.06.2023 16:28 20,4 C 23,5 C 23,8 C 23,6 C 55 % 45 % 1024,6 hPa 0,0 l/m 7,6 km/h (2 Bft) SO 135 10,9 C 23,1 C 10,6 km/h (2 Bft)
03.06.2023 16:26 20,4 C 23,7 C 24,2 C 23,6 C 55 % 45 % 1024,7 hPa 0,0 l/m 7,1 km/h (2 Bft) O 90 11,1 C 23,5 C 9,8 km/h (2 Bft)
03.06.2023 16:24 20,4 C 23,8 C 24,8 C 23,6 C 55 % 48 % 1024,7 hPa 0,0 l/m 6,3 km/h (2 Bft) NO 45 12,1 C 23,8 C 6,0 km/h (2 Bft)
03.06.2023 16:22 20,4 C 23,6 C 24,4 C 23,6 C 55 % 48 % 1024,7 hPa 0,0 l/m 6,3 km/h (2 Bft) O-NO 67 11,9 C 23,6 C 9,7 km/h (2 Bft)
03.06.2023 16:20 20,4 C 23,5 C 24,0 C 23,6 C 55 % 46 % 1024,7 hPa 0,0 l/m 6,1 km/h (2 Bft) O 90 11,2 C 23,5 C 18,0 km/h (3 Bft)
03.06.2023 16:18 20,4 C 23,5 C 24,4 C 23,5 C 55 % 46 % 1024,7 hPa 0,0 l/m 5,6 km/h (1 Bft) O 90 11,2 C 23,5 C 18,0 km/h (3 Bft)
03.06.2023 16:16 20,4 C 23,3 C 24,8 C 23,5 C 55 % 46 % 1024,7 hPa 0,0 l/m 5,6 km/h (1 Bft) O-NO 67 11,0 C 23,3 C 7,0 km/h (2 Bft)
03.06.2023 16:14 20,4 C 23,5 C 24,8 C 23,5 C 55 % 46 % 1024,7 hPa 0,0 l/m 6,0 km/h (2 Bft) NO 45 11,2 C 23,5 C 6,6 km/h (2 Bft)
03.06.2023 16:12 20,4 C 23,6 C 24,8 C 23,5 C 55 % 46 % 1024,7 hPa 0,0 l/m 5,8 km/h (2 Bft) S-SW 202 11,3 C 23,6 C 6,6 km/h (2 Bft)
03.06.2023 16:10 20,4 C 23,5 C 25,0 C 23,5 C 55 % 46 % 1024,7 hPa 0,0 l/m 6,0 km/h (2 Bft) O 90 11,2 C 23,5 C 8,9 km/h (2 Bft)
03.06.2023 16:08 20,4 C 23,5 C 24,9 C 23,5 C 55 % 46 % 1024,7 hPa 0,0 l/m 5,5 km/h (1 Bft) O-NO 67 11,2 C 23,5 C 8,9 km/h (2 Bft)
03.06.2023 16:06 20,4 C 23,7 C 25,3 C 23,5 C 55 % 45 % 1024,8 hPa 0,0 l/m 5,6 km/h (1 Bft) O-NO 67 11,1 C 23,7 C 10,4 km/h (2 Bft)
03.06.2023 16:04 20,4 C 23,5 C 25,7 C 23,5 C 55 % 46 % 1024,8 hPa 0,0 l/m 5,6 km/h (1 Bft) O-NO 67 11,2 C 23,5 C 10,4 km/h (2 Bft)
03.06.2023 16:03 20,4 C 23,4 C 26,0 C 23,5 C 55 % 45 % 1024,8 hPa 0,0 l/m 5,8 km/h (2 Bft) SO 135 10,8 C 23,4 C 7,7 km/h (2 Bft)
03.06.2023 16:00 20,4 C 23,4 C 26,1 C 23,4 C 55 % 46 % 1024,8 hPa 0,0 l/m 6,0 km/h (2 Bft) O-NO 67 11,1 C 23,4 C 9,8 km/h (2 Bft)
03.06.2023 15:58 20,5 C 23,4 C 26,3 C 23,4 C 55 % 45 % 1024,8 hPa 0,0 l/m 6,1 km/h (2 Bft) O-NO 67 10,8 C 23,4 C 10,0 km/h (2 Bft)
03.06.2023 15:56 20,4 C 23,4 C 26,8 C 23,4 C 55 % 45 % 1024,8 hPa 0,0 l/m 6,1 km/h (2 Bft) O-NO 67 10,8 C 23,4 C 12,6 km/h (3 Bft)
03.06.2023 15:54 20,4 C 23,3 C 26,4 C 23,4 C 55 % 45 % 1024,8 hPa 0,0 l/m 5,6 km/h (1 Bft) O-NO 67 10,7 C 23,3 C 12,6 km/h (3 Bft)
03.06.2023 15:52 20,4 C 23,4 C 26,6 C 23,4 C 55 % 45 % 1024,8 hPa 0,0 l/m 5,6 km/h (1 Bft) O-SO 112 10,8 C 23,4 C 8,9 km/h (2 Bft)
03.06.2023 15:50 20,4 C 23,5 C 27,0 C 23,4 C 55 % 46 % 1024,8 hPa 0,0 l/m 5,8 km/h (2 Bft) O-NO 67 11,2 C 23,5 C 8,1 km/h (2 Bft)
03.06.2023 15:48 20,5 C 23,5 C 27,1 C 23,4 C 55 % 45 % 1024,8 hPa 0,0 l/m 5,8 km/h (2 Bft) O-NO 67 10,9 C 23,5 C 7,3 km/h (2 Bft)
03.06.2023 15:46 20,4 C 23,6 C 28,1 C 23,4 C 55 % 45 % 1025,0 hPa 0,0 l/m 5,5 km/h (1 Bft) O-NO 67 11,0 C 23,6 C 6,8 km/h (2 Bft)
03.06.2023 15:44 20,4 C 23,5 C 28,3 C 23,4 C 55 % 46 % 1025,0 hPa 0,0 l/m 5,5 km/h (1 Bft) O-SO 112 11,2 C 23,5 C 7,7 km/h (2 Bft)
03.06.2023 15:42 20,4 C 23,5 C 28,4 C 23,3 C 55 % 45 % 1025,0 hPa 0,0 l/m 5,5 km/h (1 Bft) NO 45 10,9 C 23,5 C 7,7 km/h (2 Bft)
03.06.2023 15:40 20,4 C 23,5 C 28,3 C 23,3 C 55 % 47 % 1025,0 hPa 0,0 l/m 5,3 km/h (1 Bft) NO 45 11,5 C 23,5 C 7,3 km/h (2 Bft)
03.06.2023 15:38 20,4 C 23,6 C 28,4 C 23,3 C 55 % 46 % 1025,0 hPa 0,0 l/m 5,5 km/h (1 Bft) N-NO 22 11,3 C 23,6 C 7,3 km/h (2 Bft)
03.06.2023 15:36 20,4 C 23,6 C 29,2 C 23,3 C 55 % 47 % 1025,0 hPa 0,0 l/m 6,3 km/h (2 Bft) NO 45 11,6 C 23,6 C 6,4 km/h (2 Bft)
03.06.2023 15:34 20,4 C 23,4 C 28,8 C 23,3 C 55 % 48 % 1025,0 hPa 0,0 l/m 6,4 km/h (2 Bft) N-NO 22 11,8 C 23,4 C 7,9 km/h (2 Bft)
03.06.2023 15:32 20,5 C 23,3 C 27,1 C 23,3 C 55 % 45 % 1025,0 hPa 0,0 l/m 7,7 km/h (2 Bft) O-NO 67 10,7 C 22,9 C 8,7 km/h (2 Bft)
03.06.2023 15:30 20,4 C 23,3 C 27,1 C 23,3 C 55 % 45 % 1025,0 hPa 0,0 l/m 8,4 km/h (2 Bft) O-NO 67 10,7 C 22,7 C 9,7 km/h (2 Bft)
03.06.2023 15:28 20,4 C 23,3 C 26,5 C 23,2 C 55 % 45 % 1025,0 hPa 0,0 l/m 9,2 km/h (2 Bft) O-NO 67 10,7 C 22,5 C 20,9 km/h (4 Bft)
03.06.2023 15:26 20,5 C 23,4 C 26,7 C 23,2 C 55 % 47 % 1025,0 hPa 0,0 l/m 9,3 km/h (2 Bft) SO 135 11,4 C 22,6 C 20,9 km/h (4 Bft)
03.06.2023 15:24 20,5 C 23,3 C 26,7 C 23,2 C 55 % 48 % 1025,0 hPa 0,0 l/m 9,2 km/h (2 Bft) O-NO 67 11,7 C 22,5 C 16,0 km/h (3 Bft)
03.06.2023 15:22 20,5 C 23,2 C 26,1 C 23,2 C 55 % 45 % 1025,0 hPa 0,0 l/m 8,9 km/h (2 Bft) O-NO 67 10,6 C 22,5 C 16,0 km/h (3 Bft)
03.06.2023 15:20 20,5 C 23,3 C 26,1 C 23,2 C 55 % 45 % 1025,0 hPa 0,0 l/m 7,6 km/h (2 Bft) O-SO 112 10,7 C 22,9 C 14,9 km/h (3 Bft)
03.06.2023 15:18 20,5 C 23,5 C 26,6 C 23,2 C 55 % 45 % 1025,0 hPa 0,0 l/m 6,8 km/h (2 Bft) O-NO 67 10,9 C 23,4 C 14,9 km/h (3 Bft)
03.06.2023 15:16 20,4 C 23,7 C 27,8 C 23,1 C 55 % 46 % 1025,0 hPa 0,0 l/m 6,0 km/h (2 Bft) SO 135 11,4 C 23,7 C 11,6 km/h (2 Bft)
03.06.2023 15:14 20,5 C 23,7 C 28,7 C 23,1 C 55 % 47 % 1025,0 hPa 0,0 l/m 6,0 km/h (2 Bft) SO 135 11,7 C 23,7 C 7,5 km/h (2 Bft)
03.06.2023 15:12 20,5 C 23,6 C 28,4 C 23,1 C 55 % 46 % 1025,0 hPa 0,0 l/m 6,3 km/h (2 Bft) O-NO 67 11,3 C 23,6 C 5,6 km/h (1 Bft)
03.06.2023 15:10 20,5 C 23,5 C 27,5 C 23,1 C 55 % 47 % 1025,0 hPa 0,0 l/m 6,6 km/h (2 Bft) O-SO 112 11,5 C 23,4 C 12,0 km/h (2 Bft)
03.06.2023 15:08 20,5 C 23,6 C 27,8 C 23,1 C 55 % 45 % 1025,0 hPa 0,0 l/m 6,8 km/h (2 Bft) O-NO 67 11,0 C 23,5 C 12,0 km/h (2 Bft)
03.06.2023 15:06 20,5 C 23,5 C 27,5 C 23,1 C 55 % 46 % 1025,1 hPa 0,0 l/m 6,6 km/h (2 Bft) O-NO 67 11,2 C 23,4 C 12,6 km/h (3 Bft)
03.06.2023 15:04 20,5 C 23,5 C 28,0 C 23,0 C 55 % 45 % 1025,1 hPa 0,0 l/m 6,6 km/h (2 Bft) O-SO 112 10,9 C 23,4 C 16,8 km/h (3 Bft)
03.06.2023 15:02 20,5 C 23,7 C 28,3 C 23,0 C 55 % 48 % 1025,1 hPa 0,0 l/m 6,6 km/h (2 Bft) O 90 12,0 C 23,6 C 16,8 km/h (3 Bft)
03.06.2023 15:00 20,5 C 23,7 C 28,0 C 23,0 C 55 % 45 % 1025,1 hPa 0,0 l/m 6,8 km/h (2 Bft) N-NO 22 11,1 C 23,6 C 8,7 km/h (2 Bft)
03.06.2023 14:58 20,5 C 23,7 C 28,4 C 23,0 C 55 % 46 % 1025,1 hPa 0,0 l/m 6,9 km/h (2 Bft) N-NO 22 11,4 C 23,6 C 11,0 km/h (2 Bft)
03.06.2023 14:56 20,5 C 23,6 C 28,0 C 23,0 C 55 % 47 % 1025,1 hPa 0,0 l/m 7,2 km/h (2 Bft) O-NO 67 11,6 C 23,4 C 11,0 km/h (2 Bft)
03.06.2023 14:54 20,5 C 23,4 C 27,5 C 23,0 C 55 % 46 % 1025,1 hPa 0,0 l/m 7,1 km/h (2 Bft) SO 135 11,1 C 23,2 C 19,9 km/h (4 Bft)
03.06.2023 14:52 20,5 C 23,4 C 27,4 C 22,9 C 55 % 46 % 1025,1 hPa 0,0 l/m 6,6 km/h (2 Bft) O-SO 112 11,1 C 23,3 C 19,9 km/h (4 Bft)
03.06.2023 14:50 20,5 C 23,4 C 27,9 C 22,9 C 55 % 46 % 1025,1 hPa 0,0 l/m 6,0 km/h (2 Bft) O-NO 67 11,1 C 23,4 C 16,8 km/h (3 Bft)
03.06.2023 14:48 20,5 C 23,5 C 27,6 C 22,9 C 55 % 46 % 1025,1 hPa 0,0 l/m 6,3 km/h (2 Bft) O-SO 112 11,2 C 23,5 C 16,8 km/h (3 Bft)
03.06.2023 14:46 20,5 C 23,6 C 28,3 C 22,9 C 55 % 45 % 1025,1 hPa 0,0 l/m 6,4 km/h (2 Bft) O-SO 112 11,0 C 23,6 C 8,1 km/h (2 Bft)
03.06.2023 14:44 20,5 C 23,6 C 29,0 C 22,9 C 55 % 48 % 1025,1 hPa 0,0 l/m 6,8 km/h (2 Bft) O-NO 67 11,9 C 23,5 C 5,2 km/h (1 Bft)
03.06.2023 14:42 20,5 C 23,4 C 28,1 C 22,8 C 55 % 48 % 1025,1 hPa 0,0 l/m 7,4 km/h (2 Bft) O-NO 67 11,8 C 23,1 C 6,4 km/h (2 Bft)
03.06.2023 14:40 20,5 C 23,2 C 26,8 C 22,8 C 55 % 46 % 1025,1 hPa 0,0 l/m 7,4 km/h (2 Bft) O-NO 67 10,9 C 22,9 C 13,9 km/h (3 Bft)
03.06.2023 14:38 20,5 C 23,3 C 27,0 C 22,8 C 55 % 46 % 1025,1 hPa 0,0 l/m 8,0 km/h (2 Bft) O-SO 112 11,0 C 22,8 C 13,9 km/h (3 Bft)
03.06.2023 14:36 20,5 C 23,4 C 27,4 C 22,8 C 55 % 47 % 1025,1 hPa 0,0 l/m 8,0 km/h (2 Bft) N-NO 22 11,4 C 22,9 C 13,7 km/h (3 Bft)
03.06.2023 14:34 20,5 C 23,6 C 27,2 C 22,8 C 55 % 47 % 1025,1 hPa 0,0 l/m 7,9 km/h (2 Bft) O-NO 67 11,6 C 23,2 C 19,9 km/h (4 Bft)
03.06.2023 14:32 20,5 C 23,5 C 27,6 C 22,7 C 55 % 48 % 1025,1 hPa 0,0 l/m 7,2 km/h (2 Bft) S-SO 157 11,8 C 23,3 C 19,9 km/h (4 Bft)
03.06.2023 14:30 20,5 C 23,2 C 26,8 C 22,7 C 55 % 48 % 1025,1 hPa 0,0 l/m 6,9 km/h (2 Bft) SO 135 11,6 C 23,0 C 13,1 km/h (3 Bft)
03.06.2023 14:28 20,5 C 23,2 C 26,7 C 22,7 C 55 % 45 % 1025,1 hPa 0,0 l/m 6,8 km/h (2 Bft) O-NO 67 10,6 C 23,1 C 14,9 km/h (3 Bft)
03.06.2023 14:26 20,5 C 23,4 C 28,2 C 22,7 C 55 % 45 % 1025,4 hPa 0,0 l/m 6,6 km/h (2 Bft) O-SO 112 10,8 C 23,3 C 14,9 km/h (3 Bft)
03.06.2023 14:24 20,5 C 23,4 C 28,7 C 22,7 C 55 % 48 % 1025,4 hPa 0,0 l/m 6,8 km/h (2 Bft) O-NO 67 11,8 C 23,3 C 7,0 km/h (2 Bft)
03.06.2023 14:22 20,6 C 23,3 C 27,5 C 22,6 C 55 % 48 % 1025,4 hPa 0,0 l/m 6,9 km/h (2 Bft) O-NO 67 11,7 C 23,1 C 7,0 km/h (2 Bft)
03.06.2023 14:20 20,5 C 23,3 C 27,5 C 22,6 C 55 % 47 % 1025,4 hPa 0,0 l/m 6,9 km/h (2 Bft) NO 45 11,3 C 23,1 C 12,7 km/h (3 Bft)
03.06.2023 14:18 20,5 C 23,3 C 27,3 C 22,6 C 55 % 47 % 1025,4 hPa 0,0 l/m 7,1 km/h (2 Bft) O-NO 67 11,3 C 23,1 C 13,9 km/h (3 Bft)
03.06.2023 14:16 20,5 C 23,3 C 27,7 C 22,6 C 55 % 46 % 1025,4 hPa 0,0 l/m 6,9 km/h (2 Bft) O 90 11,0 C 23,1 C 13,9 km/h (3 Bft)
03.06.2023 14:14 20,5 C 23,3 C 29,0 C 22,6 C 55 % 48 % 1025,4 hPa 0,0 l/m 6,4 km/h (2 Bft) O-NO 67 11,7 C 23,3 C 13,7 km/h (3 Bft)
03.06.2023 14:12 20,5 C 23,1 C 28,9 C 22,5 C 55 % 48 % 1025,4 hPa 0,0 l/m 6,1 km/h (2 Bft) O-NO 67 11,5 C 23,1 C 8,3 km/h (2 Bft)
03.06.2023 14:10 20,5 C 23,0 C 28,2 C 22,5 C 55 % 45 % 1025,4 hPa 0,0 l/m 5,8 km/h (2 Bft) O-NO 67 10,4 C 23,0 C 10,0 km/h (2 Bft)
03.06.2023 14:08 20,5 C 23,2 C 28,7 C 22,5 C 55 % 47 % 1025,4 hPa 0,0 l/m 5,8 km/h (2 Bft) O-NO 67 11,3 C 23,2 C 11,4 km/h (2 Bft)
03.06.2023 14:06 20,5 C 23,3 C 28,9 C 22,5 C 55 % 47 % 1025,4 hPa 0,0 l/m 6,0 km/h (2 Bft) O-NO 67 11,3 C 23,3 C 13,5 km/h (3 Bft)
03.06.2023 14:04 20,5 C 23,3 C 28,7 C 22,5 C 55 % 48 % 1025,4 hPa 0,0 l/m 6,1 km/h (2 Bft) O-NO 67 11,7 C 23,3 C 13,5 km/h (3 Bft)
03.06.2023 14:02 20,5 C 23,2 C 28,5 C 22,5 C 55 % 48 % 1025,4 hPa 0,0 l/m 6,1 km/h (2 Bft) O-SO 112 11,6 C 23,2 C 5,4 km/h (1 Bft)
03.06.2023 14:00 20,5 C 22,9 C 27,9 C 22,5 C 55 % 49 % 1025,4 hPa 0,0 l/m 6,4 km/h (2 Bft) O-NO 67 11,6 C 22,9 C 8,5 km/h (2 Bft)
03.06.2023 13:58 20,6 C 22,9 C 26,5 C 22,5 C 55 % 49 % 1025,4 hPa 0,0 l/m 6,9 km/h (2 Bft) N-NO 22 11,6 C 22,7 C 12,4 km/h (3 Bft)
03.06.2023 13:56 20,6 C 22,9 C 26,4 C 22,5 C 55 % 49 % 1025,4 hPa 0,0 l/m 6,9 km/h (2 Bft) O-SO 112 11,6 C 22,7 C 12,4 km/h (3 Bft)
03.06.2023 13:54 20,6 C 23,0 C 26,4 C 22,4 C 55 % 46 % 1025,4 hPa 0,0 l/m 7,1 km/h (2 Bft) O-NO 67 10,7 C 22,8 C 9,3 km/h (2 Bft)
03.06.2023 13:52 20,6 C 23,1 C 25,9 C 22,4 C 55 % 47 % 1025,4 hPa 0,0 l/m 6,6 km/h (2 Bft) O-NO 67 11,2 C 23,0 C 10,4 km/h (2 Bft)
03.06.2023 13:50 20,6 C 23,0 C 25,4 C 22,4 C 55 % 47 % 1025,4 hPa 0,0 l/m 6,4 km/h (2 Bft) O-NO 67 11,1 C 23,0 C 12,6 km/h (3 Bft)
03.06.2023 13:48 20,6 C 23,3 C 25,5 C 22,4 C 55 % 47 % 1025,4 hPa 0,0 l/m 6,3 km/h (2 Bft) O 90 11,3 C 23,3 C 12,6 km/h (3 Bft)
03.06.2023 13:46 20,6 C 23,3 C 25,9 C 22,4 C 55 % 50 % 1025,5 hPa 0,0 l/m 6,3 km/h (2 Bft) O-NO 67 12,3 C 23,3 C 13,5 km/h (3 Bft)
03.06.2023 13:44 20,6 C 23,2 C 26,2 C 22,3 C 56 % 49 % 1025,5 hPa 0,0 l/m 6,3 km/h (2 Bft) O 90 11,9 C 23,2 C 13,5 km/h (3 Bft)
03.06.2023 13:42 20,6 C 22,8 C 26,0 C 22,3 C 56 % 50 % 1025,5 hPa 0,0 l/m 6,9 km/h (2 Bft) SO 135 11,8 C 22,6 C 6,2 km/h (2 Bft)
03.06.2023 13:40 20,6 C 22,8 C 26,0 C 22,3 C 56 % 50 % 1025,5 hPa 0,0 l/m 7,6 km/h (2 Bft) NO 45 11,8 C 22,4 C 11,2 km/h (2 Bft)
03.06.2023 13:38 20,6 C 22,8 C 25,4 C 22,3 C 55 % 50 % 1025,5 hPa 0,0 l/m 8,0 km/h (2 Bft) O-NO 67 11,8 C 22,3 C 11,2 km/h (2 Bft)
03.06.2023 13:36 20,6 C 22,8 C 25,6 C 22,2 C 55 % 50 % 1025,5 hPa 0,0 l/m 8,9 km/h (2 Bft) S-SO 157 11,8 C 22,0 C 9,8 km/h (2 Bft)
03.06.2023 13:34 20,5 C 22,6 C 25,5 C 22,2 C 55 % 48 % 1025,5 hPa 0,0 l/m 9,2 km/h (2 Bft) O-SO 112 11,0 C 21,7 C 22,6 km/h (4 Bft)
03.06.2023 13:32 20,6 C 22,5 C 26,3 C 22,2 C 55 % 48 % 1025,5 hPa 0,0 l/m 8,9 km/h (2 Bft) SO 135 10,9 C 21,7 C 22,6 km/h (4 Bft)
03.06.2023 13:30 20,6 C 22,5 C 26,3 C 22,2 C 55 % 50 % 1025,5 hPa 0,0 l/m 8,5 km/h (2 Bft) O-NO 67 11,5 C 21,8 C 14,3 km/h (3 Bft)
03.06.2023 13:28 20,6 C 22,3 C 26,2 C 22,2 C 55 % 49 % 1025,5 hPa 0,0 l/m 8,0 km/h (2 Bft) O 90 11,1 C 21,8 C 13,7 km/h (3 Bft)
03.06.2023 13:26 20,6 C 22,3 C 27,1 C 22,1 C 55 % 49 % 1025,8 hPa 0,0 l/m 7,7 km/h (2 Bft) O-SO 112 11,1 C 21,9 C 13,9 km/h (3 Bft)
03.06.2023 13:24 20,6 C 22,5 C 28,0 C 22,1 C 55 % 49 % 1025,8 hPa 0,0 l/m 7,6 km/h (2 Bft) O-NO 67 11,2 C 22,1 C 14,1 km/h (3 Bft)
03.06.2023 13:22 20,6 C 22,5 C 27,9 C 22,1 C 55 % 48 % 1025,8 hPa 0,0 l/m 7,9 km/h (2 Bft) N-NO 22 10,9 C 22,0 C 14,1 km/h (3 Bft)
03.06.2023 13:20 20,5 C 22,5 C 28,5 C 22,1 C 55 % 49 % 1025,8 hPa 0,0 l/m 7,7 km/h (2 Bft) O-NO 67 11,2 C 22,1 C 10,6 km/h (2 Bft)
03.06.2023 13:18 20,5 C 22,4 C 28,2 C 22,0 C 55 % 50 % 1025,8 hPa 0,0 l/m 7,9 km/h (2 Bft) N-NO 22 11,5 C 21,9 C 12,7 km/h (3 Bft)
03.06.2023 13:16 20,5 C 22,4 C 28,8 C 22,0 C 55 % 50 % 1025,8 hPa 0,0 l/m 7,9 km/h (2 Bft) O-NO 67 11,5 C 21,9 C 12,7 km/h (3 Bft)
03.06.2023 13:14 20,5 C 22,3 C 27,6 C 22,0 C 55 % 50 % 1025,8 hPa 0,0 l/m 7,1 km/h (2 Bft) O-NO 67 11,4 C 22,1 C 12,6 km/h (3 Bft)
03.06.2023 13:12 20,5 C 22,4 C 28,3 C 22,0 C 55 % 49 % 1025,8 hPa 0,0 l/m 6,9 km/h (2 Bft) O-SO 112 11,2 C 22,2 C 12,6 km/h (3 Bft)
03.06.2023 13:10 20,5 C 22,4 C 28,5 C 21,9 C 55 % 50 % 1025,8 hPa 0,0 l/m 6,6 km/h (2 Bft) O-SO 112 11,5 C 22,3 C 6,8 km/h (2 Bft)
03.06.2023 13:09 20,5 C 22,4 C 29,2 C 21,9 C 55 % 50 % 1025,8 hPa 0,0 l/m 6,9 km/h (2 Bft) O-SO 112 11,5 C 22,2 C 10,0 km/h (2 Bft)
03.06.2023 13:06 20,5 C 22,3 C 29,6 C 21,9 C 55 % 51 % 1025,9 hPa 0,0 l/m 7,4 km/h (2 Bft) O-NO 67 11,7 C 22,0 C 16,6 km/h (3 Bft)
03.06.2023 13:04 20,5 C 22,3 C 28,4 C 21,9 C 55 % 51 % 1025,9 hPa 0,0 l/m 7,1 km/h (2 Bft) NO 45 11,7 C 22,1 C 9,3 km/h (2 Bft)
03.06.2023 13:02 20,5 C 22,3 C 28,5 C 21,9 C 55 % 51 % 1025,9 hPa 0,0 l/m 7,4 km/h (2 Bft) NO 45 11,7 C 22,0 C 9,3 km/h (2 Bft)
03.06.2023 13:00 20,4 C 22,3 C 28,2 C 21,8 C 55 % 51 % 1025,9 hPa 0,0 l/m 7,4 km/h (2 Bft) O-SO 112 11,7 C 22,0 C 11,6 km/h (2 Bft)
03.06.2023 12:58 20,4 C 22,3 C 28,0 C 21,8 C 55 % 50 % 1025,9 hPa 0,0 l/m 8,2 km/h (2 Bft) O-NO 67 11,4 C 21,7 C 16,2 km/h (3 Bft)
03.06.2023 12:56 20,4 C 22,3 C 28,4 C 21,8 C 55 % 52 % 1025,9 hPa 0,0 l/m 8,2 km/h (2 Bft) O-SO 112 12,0 C 21,7 C 26,8 km/h (4 Bft)
03.06.2023 12:54 20,4 C 22,1 C 28,0 C 21,8 C 55 % 51 % 1025,9 hPa 0,0 l/m 7,7 km/h (2 Bft) SO 135 11,5 C 21,7 C 9,3 km/h (2 Bft)
03.06.2023 12:52 20,4 C 22,1 C 28,2 C 21,6 C 55 % 51 % 1025,9 hPa 0,0 l/m 7,6 km/h (2 Bft) O-NO 67 11,5 C 21,7 C 9,5 km/h (2 Bft)
03.06.2023 12:50 20,4 C 21,9 C 27,3 C 21,6 C 55 % 51 % 1025,9 hPa 0,0 l/m 7,6 km/h (2 Bft) O-NO 67 11,3 C 21,5 C 23,2 km/h (4 Bft)
03.06.2023 12:48 20,4 C 21,9 C 27,5 C 21,6 C 55 % 51 % 1025,9 hPa 0,0 l/m 7,1 km/h (2 Bft) O-SO 112 11,3 C 21,7 C 23,2 km/h (4 Bft)
03.06.2023 12:46 20,4 C 22,1 C 29,8 C 21,6 C 55 % 51 % 1025,8 hPa 0,0 l/m 5,5 km/h (1 Bft) O-NO 67 11,5 C 22,1 C 11,4 km/h (2 Bft)
03.06.2023 12:44 20,4 C 22,1 C 29,5 C 21,5 C 55 % 52 % 1025,8 hPa 0,0 l/m 5,8 km/h (2 Bft) O 90 11,8 C 22,1 C 7,0 km/h (2 Bft)
03.06.2023 12:42 20,4 C 21,9 C 28,7 C 21,5 C 55 % 51 % 1025,8 hPa 0,0 l/m 6,1 km/h (2 Bft) O-SO 112 11,3 C 21,9 C 7,7 km/h (2 Bft)
03.06.2023 12:40 20,4 C 21,9 C 28,0 C 21,5 C 55 % 51 % 1025,8 hPa 0,0 l/m 5,8 km/h (2 Bft) O-NO 67 11,3 C 21,9 C 9,5 km/h (2 Bft)
03.06.2023 12:38 20,4 C 22,0 C 29,2 C 21,5 C 55 % 52 % 1025,8 hPa 0,0 l/m 5,5 km/h (1 Bft) O-NO 67 11,7 C 22,0 C 9,5 km/h (2 Bft)
03.06.2023 12:36 20,4 C 22,0 C 28,6 C 21,4 C 55 % 52 % 1025,8 hPa 0,0 l/m 5,6 km/h (1 Bft) SO 135 11,7 C 22,0 C 9,7 km/h (2 Bft)
03.06.2023 12:34 20,4 C 22,1 C 28,9 C 21,4 C 56 % 52 % 1025,8 hPa 0,0 l/m 5,6 km/h (1 Bft) O-SO 112 11,8 C 22,1 C 9,7 km/h (2 Bft)
03.06.2023 12:32 20,4 C 22,1 C 29,3 C 21,4 C 56 % 53 % 1025,8 hPa 0,0 l/m 5,6 km/h (1 Bft) NW 315 12,1 C 22,1 C 7,7 km/h (2 Bft)
03.06.2023 12:30 20,4 C 22,0 C 29,7 C 21,4 C 55 % 53 % 1025,8 hPa 0,0 l/m 5,8 km/h (2 Bft) NO 45 12,0 C 22,0 C 9,5 km/h (2 Bft)
03.06.2023 12:28 20,4 C 21,9 C 29,2 C 21,3 C 55 % 53 % 1025,8 hPa 0,0 l/m 6,4 km/h (2 Bft) SO 135 11,9 C 21,9 C 9,5 km/h (2 Bft)
03.06.2023 12:26 20,4 C 21,9 C 29,7 C 21,3 C 55 % 53 % 1025,9 hPa 0,0 l/m 6,4 km/h (2 Bft) NO 45 11,9 C 21,9 C 7,7 km/h (2 Bft)
03.06.2023 12:24 20,2 C 21,6 C 28,7 C 21,3 C 55 % 53 % 1025,9 hPa 0,0 l/m 6,9 km/h (2 Bft) O-NO 67 11,6 C 21,4 C 10,8 km/h (2 Bft)
03.06.2023 12:22 20,4 C 21,6 C 27,8 C 21,3 C 55 % 52 % 1025,9 hPa 0,0 l/m 6,9 km/h (2 Bft) O-NO 67 11,3 C 21,4 C 10,8 km/h (2 Bft)
03.06.2023 12:20 20,4 C 21,7 C 28,6 C 21,2 C 55 % 53 % 1025,9 hPa 0,0 l/m 6,9 km/h (2 Bft) O-NO 67 11,7 C 21,5 C 11,4 km/h (2 Bft)
03.06.2023 12:18 20,4 C 21,6 C 28,4 C 21,2 C 55 % 53 % 1025,9 hPa 0,0 l/m 7,1 km/h (2 Bft) O-SO 112 11,6 C 21,3 C 11,4 km/h (2 Bft)
03.06.2023 12:16 20,4 C 21,4 C 28,3 C 21,3 C 55 % 53 % 1025,9 hPa 0,0 l/m 6,6 km/h (2 Bft) O-NO 67 11,4 C 21,3 C 13,1 km/h (3 Bft)
03.06.2023 12:14 20,2 C 21,5 C 28,9 C 21,3 C 55 % 55 % 1025,9 hPa 0,0 l/m 6,1 km/h (2 Bft) O-NO 67 12,1 C 21,5 C 13,1 km/h (3 Bft)
03.06.2023 12:12 20,4 C 21,4 C 28,0 C 21,2 C 55 % 53 % 1025,9 hPa 0,0 l/m 6,3 km/h (2 Bft) O-SO 112 11,4 C 21,4 C 13,3 km/h (3 Bft)
03.06.2023 12:10 20,4 C 21,3 C 29,1 C 21,1 C 55 % 55 % 1025,9 hPa 0,0 l/m 8,5 km/h (2 Bft) O-NO 67 11,9 C 20,5 C 13,3 km/h (3 Bft)
03.06.2023 12:08 20,4 C 21,3 C 29,1 C 21,1 C 55 % 55 % 1025,9 hPa 0,0 l/m 8,5 km/h (2 Bft) O-NO 67 11,9 C 20,5 C 13,3 km/h (3 Bft)
03.06.2023 12:06 20,2 C 21,3 C 29,1 C 21,1 C 55 % 55 % 1025,9 hPa 0,0 l/m 8,5 km/h (2 Bft) O-NO 67 11,9 C 20,5 C 13,3 km/h (3 Bft)
03.06.2023 12:04 20,2 C 21,3 C 29,1 C 21,1 C 55 % 55 % 1025,9 hPa 0,0 l/m 8,5 km/h (2 Bft) O-NO 67 11,9 C 20,5 C 13,3 km/h (3 Bft)
03.06.2023 12:02 20,2 C 21,3 C 29,1 C 21,1 C 55 % 55 % 1025,9 hPa 0,0 l/m 8,5 km/h (2 Bft) O-NO 67 11,9 C 20,5 C 13,3 km/h (3 Bft)
03.06.2023 12:00 20,4 C 21,2 C 28,7 C 21,1 C 55 % 56 % 1025,9 hPa 0,0 l/m 8,7 km/h (2 Bft) O-SO 112 12,1 C 20,4 C 17,2 km/h (3 Bft)
03.06.2023 11:58 20,2 C 21,0 C 28,1 C 21,1 C 55 % 53 % 1025,9 hPa 0,0 l/m 9,0 km/h (2 Bft) O-NO 67 11,0 C 20,1 C 17,2 km/h (3 Bft)
03.06.2023 11:56 20,4 C 21,1 C 27,5 C 21,1 C 55 % 54 % 1025,9 hPa 0,0 l/m 8,9 km/h (2 Bft) O-NO 67 11,4 C 20,2 C 18,7 km/h (3 Bft)
03.06.2023 11:54 20,3 C 21,0 C 27,5 C 21,0 C 55 % 56 % 1025,9 hPa 0,0 l/m 8,7 km/h (2 Bft) O 90 11,9 C 20,2 C 18,7 km/h (3 Bft)
03.06.2023 11:52 20,4 C 20,8 C 28,0 C 21,0 C 55 % 56 % 1025,9 hPa 0,0 l/m 9,2 km/h (2 Bft) O-SO 112 11,7 C 19,8 C 14,9 km/h (3 Bft)
03.06.2023 11:50 20,4 C 20,7 C 28,0 C 21,0 C 55 % 54 % 1025,9 hPa 0,0 l/m 9,3 km/h (2 Bft) O-SO 112 11,1 C 19,6 C 14,5 km/h (3 Bft)
03.06.2023 11:48 20,4 C 20,6 C 28,1 C 21,0 C 55 % 55 % 1025,9 hPa 0,0 l/m 8,9 km/h (2 Bft) SW 225 11,2 C 19,7 C 11,2 km/h (2 Bft)
03.06.2023 11:46 20,4 C 20,5 C 26,8 C 20,9 C 55 % 54 % 1025,9 hPa 0,0 l/m 8,5 km/h (2 Bft) O-SO 112 10,9 C 19,7 C 24,1 km/h (4 Bft)
03.06.2023 11:44 20,4 C 20,6 C 26,6 C 20,9 C 55 % 54 % 1025,9 hPa 0,0 l/m 8,4 km/h (2 Bft) O-NO 67 11,0 C 19,8 C 24,1 km/h (4 Bft)
03.06.2023 11:42 20,4 C 20,8 C 27,6 C 20,9 C 55 % 55 % 1025,9 hPa 0,0 l/m 7,6 km/h (2 Bft) O-SO 112 11,4 C 20,3 C 24,1 km/h (4 Bft)
03.06.2023 11:40 20,4 C 20,8 C 29,3 C 20,9 C 55 % 56 % 1025,9 hPa 0,0 l/m 6,3 km/h (2 Bft) O-SO 112 11,7 C 20,8 C 12,9 km/h (3 Bft)
03.06.2023 11:38 20,4 C 20,6 C 28,1 C 20,8 C 55 % 56 % 1025,9 hPa 0,0 l/m 6,6 km/h (2 Bft) O-NO 67 11,5 C 20,5 C 9,8 km/h (2 Bft)
03.06.2023 11:36 20,4 C 20,5 C 27,7 C 20,8 C 55 % 55 % 1025,9 hPa 0,0 l/m 7,1 km/h (2 Bft) O-NO 67 11,1 C 20,2 C 10,2 km/h (2 Bft)
03.06.2023 11:34 20,4 C 20,5 C 27,5 C 20,8 C 55 % 54 % 1025,9 hPa 0,0 l/m 8,0 km/h (2 Bft) O 90 10,9 C 19,9 C 10,2 km/h (2 Bft)
03.06.2023 11:32 20,4 C 20,5 C 27,8 C 20,8 C 55 % 55 % 1025,9 hPa 0,0 l/m 8,2 km/h (2 Bft) NO 45 11,1 C 19,8 C 9,8 km/h (2 Bft)
03.06.2023 11:30 20,4 C 20,4 C 27,8 C 20,8 C 55 % 57 % 1025,9 hPa 0,0 l/m 8,5 km/h (2 Bft) O-NO 67 11,6 C 19,6 C 12,7 km/h (3 Bft)
03.06.2023 11:28 20,4 C 20,2 C 26,7 C 20,7 C 55 % 56 % 1025,9 hPa 0,0 l/m 8,0 km/h (2 Bft) O 90 11,1 C 19,6 C 17,0 km/h (3 Bft)
03.06.2023 11:26 20,4 C 20,1 C 26,4 C 20,7 C 55 % 56 % 1025,9 hPa 0,0 l/m 7,7 km/h (2 Bft) O-NO 67 11,0 C 19,6 C 17,0 km/h (3 Bft)
03.06.2023 11:24 20,4 C 20,2 C 27,1 C 20,7 C 55 % 55 % 1025,9 hPa 0,0 l/m 7,7 km/h (2 Bft) O-NO 67 10,9 C 19,7 C 16,4 km/h (3 Bft)
03.06.2023 11:22 20,4 C 20,2 C 27,0 C 20,7 C 55 % 57 % 1025,9 hPa 0,0 l/m 7,1 km/h (2 Bft) O-SO 112 11,4 C 19,9 C 10,6 km/h (2 Bft)
03.06.2023 11:20 20,4 C 20,2 C 27,9 C 20,6 C 55 % 56 % 1025,9 hPa 0,0 l/m 7,1 km/h (2 Bft) O-SO 112 11,1 C 19,9 C 10,6 km/h (2 Bft)
03.06.2023 11:18 20,4 C 20,0 C 27,5 C 20,6 C 55 % 55 % 1025,9 hPa 0,0 l/m 7,1 km/h (2 Bft) NO 45 10,7 C 19,7 C 13,3 km/h (3 Bft)
03.06.2023 11:16 20,4 C 20,0 C 27,8 C 20,6 C 55 % 57 % 1025,9 hPa 0,0 l/m 7,9 km/h (2 Bft) O-NO 67 11,2 C 19,4 C 18,3 km/h (3 Bft)
03.06.2023 11:14 20,4 C 19,9 C 27,1 C 20,6 C 55 % 57 % 1025,9 hPa 0,0 l/m 7,7 km/h (2 Bft) O-NO 67 11,1 C 19,4 C 12,6 km/h (3 Bft)
03.06.2023 11:12 20,4 C 19,9 C 26,5 C 20,6 C 55 % 56 % 1025,9 hPa 0,0 l/m 7,2 km/h (2 Bft) O-SO 112 10,9 C 19,6 C 12,6 km/h (3 Bft)
03.06.2023 11:10 20,4 C 20,0 C 27,1 C 20,5 C 55 % 57 % 1025,9 hPa 0,0 l/m 6,6 km/h (2 Bft) NO 45 11,2 C 19,9 C 11,2 km/h (2 Bft)
03.06.2023 11:08 20,4 C 19,9 C 26,4 C 20,5 C 55 % 56 % 1025,9 hPa 0,0 l/m 6,6 km/h (2 Bft) O-NO 67 10,9 C 19,8 C 12,4 km/h (3 Bft)
03.06.2023 11:06 20,4 C 19,9 C 26,7 C 20,5 C 55 % 57 % 1026,1 hPa 0,0 l/m 6,8 km/h (2 Bft) O-NO 67 11,1 C 19,7 C 12,4 km/h (3 Bft)
03.06.2023 11:04 20,4 C 19,7 C 27,4 C 20,5 C 55 % 58 % 1026,1 hPa 0,0 l/m 6,6 km/h (2 Bft) O-NO 67 11,2 C 19,6 C 9,8 km/h (2 Bft)
03.06.2023 11:02 20,4 C 19,6 C 27,0 C 20,5 C 55 % 58 % 1026,1 hPa 0,0 l/m 7,1 km/h (2 Bft) O-SO 112 11,1 C 19,3 C 9,8 km/h (2 Bft)
03.06.2023 11:00 20,4 C 19,5 C 26,3 C 20,4 C 55 % 55 % 1026,1 hPa 0,0 l/m 7,6 km/h (2 Bft) O-NO 67 10,2 C 19,0 C 11,8 km/h (2 Bft)
03.06.2023 10:58 20,4 C 19,6 C 25,9 C 20,4 C 55 % 57 % 1026,1 hPa 0,0 l/m 7,7 km/h (2 Bft) O-NO 67 10,8 C 19,1 C 12,2 km/h (2 Bft)
03.06.2023 10:56 20,4 C 19,5 C 25,6 C 20,4 C 55 % 56 % 1026,1 hPa 0,0 l/m 7,6 km/h (2 Bft) SO 135 10,5 C 19,0 C 12,2 km/h (2 Bft)
03.06.2023 10:54 20,4 C 19,6 C 25,7 C 20,4 C 55 % 56 % 1026,1 hPa 0,0 l/m 7,1 km/h (2 Bft) O-SO 112 10,6 C 19,3 C 16,2 km/h (3 Bft)
03.06.2023 10:52 20,4 C 19,6 C 26,8 C 20,4 C 55 % 58 % 1026,1 hPa 0,0 l/m 6,8 km/h (2 Bft) O-NO 67 11,1 C 19,4 C 16,2 km/h (3 Bft)
03.06.2023 10:50 20,4 C 19,6 C 26,8 C 20,3 C 55 % 58 % 1026,1 hPa 0,0 l/m 6,3 km/h (2 Bft) O-NO 67 11,1 C 19,6 C 8,9 km/h (2 Bft)
03.06.2023 10:48 20,4 C 19,6 C 26,8 C 20,3 C 55 % 57 % 1026,1 hPa 0,0 l/m 5,8 km/h (2 Bft) N-NO 22 10,8 C 19,6 C 8,9 km/h (2 Bft)
03.06.2023 10:46 20,4 C 19,5 C 26,0 C 20,3 C 55 % 57 % 1025,4 hPa 0,0 l/m 5,3 km/h (1 Bft) N-NO 22 10,8 C 19,5 C 11,0 km/h (2 Bft)
03.06.2023 10:44 20,4 C 19,5 C 26,4 C 20,3 C 55 % 58 % 1025,4 hPa 0,0 l/m 5,1 km/h (1 Bft) O-NO 67 11,0 C 19,5 C 12,2 km/h (2 Bft)
03.06.2023 10:42 20,2 C 19,5 C 27,1 C 20,3 C 55 % 59 % 1025,4 hPa 0,0 l/m 5,1 km/h (1 Bft) W 270 11,3 C 19,5 C 12,2 km/h (2 Bft)
03.06.2023 10:40 20,4 C 19,4 C 26,9 C 20,2 C 55 % 58 % 1025,4 hPa 0,0 l/m 5,1 km/h (1 Bft) O 90 10,9 C 19,4 C 9,1 km/h (2 Bft)
03.06.2023 10:38 20,2 C 19,3 C 26,6 C 20,2 C 55 % 58 % 1025,4 hPa 0,0 l/m 6,0 km/h (2 Bft) NO 45 10,8 C 19,3 C 6,2 km/h (2 Bft)
03.06.2023 10:36 20,3 C 19,1 C 25,3 C 20,2 C 55 % 59 % 1025,4 hPa 0,0 l/m 6,0 km/h (2 Bft) O-NO 67 10,9 C 19,1 C 12,7 km/h (3 Bft)
03.06.2023 10:34 20,3 C 19,2 C 25,7 C 20,2 C 55 % 57 % 1025,4 hPa 0,0 l/m 6,1 km/h (2 Bft) O-SO 112 10,5 C 19,2 C 12,7 km/h (3 Bft)
03.06.2023 10:32 20,2 C 19,1 C 25,8 C 20,2 C 55 % 58 % 1025,4 hPa 0,0 l/m 6,1 km/h (2 Bft) O-NO 67 10,6 C 19,1 C 10,4 km/h (2 Bft)
03.06.2023 10:30 20,2 C 19,0 C 25,8 C 20,2 C 55 % 57 % 1025,4 hPa 0,0 l/m 6,4 km/h (2 Bft) O-SO 112 10,3 C 19,0 C 10,4 km/h (2 Bft)
03.06.2023 10:28 20,2 C 19,0 C 26,0 C 20,1 C 55 % 59 % 1025,4 hPa 0,0 l/m 6,1 km/h (2 Bft) O 90 10,8 C 19,0 C 10,4 km/h (2 Bft)
03.06.2023 10:26 20,2 C 18,9 C 26,0 C 20,1 C 55 % 60 % 1025,9 hPa 0,0 l/m 6,0 km/h (2 Bft) O-NO 67 11,0 C 18,9 C 8,3 km/h (2 Bft)
03.06.2023 10:24 20,2 C 18,7 C 25,6 C 20,1 C 55 % 59 % 1025,9 hPa 0,0 l/m 6,0 km/h (2 Bft) O-NO 67 10,5 C 18,7 C 10,2 km/h (2 Bft)
03.06.2023 10:22 20,2 C 18,7 C 24,8 C 20,1 C 55 % 58 % 1025,9 hPa 0,0 l/m 5,6 km/h (1 Bft) O-SO 112 10,3 C 18,7 C 12,2 km/h (2 Bft)
03.06.2023 10:20 20,2 C 18,7 C 25,6 C 20,1 C 55 % 59 % 1025,9 hPa 0,0 l/m 5,5 km/h (1 Bft) NO 45 10,5 C 18,7 C 12,2 km/h (2 Bft)
03.06.2023 10:18 20,1 C 18,7 C 25,6 C 20,1 C 55 % 60 % 1025,9 hPa 0,0 l/m 5,1 km/h (1 Bft) O-NO 67 10,8 C 18,7 C 5,6 km/h (1 Bft)
03.06.2023 10:16 20,1 C 18,6 C 25,7 C 20,0 C 55 % 60 % 1025,9 hPa 0,0 l/m 5,1 km/h (1 Bft) NO 45 10,7 C 18,6 C 11,0 km/h (2 Bft)
03.06.2023 10:14 20,2 C 18,5 C 24,4 C 20,0 C 55 % 60 % 1025,9 hPa 0,0 l/m 5,5 km/h (1 Bft) NO 45 10,6 C 18,5 C 11,0 km/h (2 Bft)
03.06.2023 10:12 20,1 C 18,5 C 24,7 C 20,0 C 55 % 60 % 1025,9 hPa 0,0 l/m 5,6 km/h (1 Bft) O-NO 67 10,6 C 18,5 C 9,3 km/h (2 Bft)
03.06.2023 10:10 20,1 C 18,3 C 24,1 C 20,0 C 54 % 60 % 1025,9 hPa 0,0 l/m 6,0 km/h (2 Bft) O-NO 67 10,4 C 18,3 C 9,3 km/h (2 Bft)
03.06.2023 10:08 20,1 C 18,2 C 23,9 C 20,0 C 54 % 59 % 1025,9 hPa 0,0 l/m 5,8 km/h (2 Bft) NO 45 10,1 C 18,2 C 8,5 km/h (2 Bft)
03.06.2023 10:06 20,1 C 18,2 C 23,4 C 20,0 C 54 % 59 % 1025,8 hPa 0,0 l/m 6,1 km/h (2 Bft) NO 45 10,1 C 18,2 C 8,5 km/h (2 Bft)
03.06.2023 10:04 20,1 C 18,1 C 23,4 C 20,0 C 54 % 60 % 1025,8 hPa 0,0 l/m 6,0 km/h (2 Bft) O-NO 67 10,2 C 18,1 C 9,7 km/h (2 Bft)
03.06.2023 10:02 20,1 C 18,0 C 23,1 C 19,9 C 54 % 59 % 1025,8 hPa 0,0 l/m 5,8 km/h (2 Bft) O-NO 67 9,9 C 18,0 C 9,7 km/h (2 Bft)
03.06.2023 10:00 20,1 C 18,0 C 23,5 C 19,9 C 54 % 59 % 1025,8 hPa 0,0 l/m 5,5 km/h (1 Bft) O-NO 67 9,9 C 18,0 C 15,8 km/h (3 Bft)
03.06.2023 09:58 20,1 C 18,1 C 23,5 C 19,9 C 54 % 60 % 1025,8 hPa 0,0 l/m 5,1 km/h (1 Bft) NO 45 10,2 C 18,1 C 6,6 km/h (2 Bft)
03.06.2023 09:56 20,1 C 18,1 C 23,5 C 19,9 C 54 % 60 % 1025,8 hPa 0,0 l/m 5,1 km/h (1 Bft) O-NO 67 10,2 C 18,1 C 8,3 km/h (2 Bft)
03.06.2023 09:54 20,1 C 18,0 C 23,4 C 19,9 C 54 % 60 % 1025,8 hPa 0,0 l/m 5,0 km/h (1 Bft) O-NO 67 10,1 C 18,0 C 8,7 km/h (2 Bft)
03.06.2023 09:52 20,1 C 17,8 C 23,7 C 19,9 C 54 % 60 % 1025,8 hPa 0,0 l/m 5,0 km/h (1 Bft) O 90 9,9 C 17,8 C 8,7 km/h (2 Bft)
03.06.2023 09:50 20,1 C 17,8 C 23,1 C 19,9 C 54 % 61 % 1025,8 hPa 0,0 l/m 5,3 km/h (1 Bft) NO 45 10,2 C 17,8 C 5,8 km/h (2 Bft)
03.06.2023 09:48 20,1 C 17,7 C 23,1 C 19,9 C 53 % 60 % 1025,8 hPa 0,0 l/m 5,0 km/h (1 Bft) NO 45 9,8 C 17,7 C 5,0 km/h (1 Bft)
03.06.2023 09:46 20,2 C 17,7 C 23,4 C 19,9 C 53 % 61 % 1025,8 hPa 0,0 l/m 4,8 km/h (1 Bft) O-SO 112 10,1 C 17,7 C 8,7 km/h (2 Bft)
03.06.2023 09:44 20,2 C 17,6 C 23,0 C 19,9 C 54 % 60 % 1025,8 hPa 0,0 l/m 5,0 km/h (1 Bft) O-NO 67 9,7 C 17,6 C 8,7 km/h (2 Bft)
03.06.2023 09:42 20,2 C 17,6 C 22,6 C 19,8 C 54 % 60 % 1025,8 hPa 0,0 l/m 5,3 km/h (1 Bft) NO 45 9,7 C 17,6 C 8,5 km/h (2 Bft)
03.06.2023 09:40 20,2 C 17,7 C 22,9 C 19,8 C 54 % 61 % 1025,8 hPa 0,0 l/m 4,7 km/h (1 Bft) NO 45 10,1 C 17,7 C 8,5 km/h (2 Bft)
03.06.2023 09:38 20,2 C 17,5 C 22,8 C 19,8 C 54 % 61 % 1025,8 hPa 0,0 l/m 4,7 km/h (1 Bft) NO 45 9,9 C 17,5 C 5,8 km/h (2 Bft)
03.06.2023 09:36 20,2 C 17,5 C 22,3 C 19,8 C 54 % 61 % 1025,8 hPa 0,0 l/m 4,7 km/h (1 Bft) O 90 9,9 C 17,5 C 7,3 km/h (2 Bft)
03.06.2023 09:34 20,2 C 17,5 C 22,3 C 19,8 C 54 % 60 % 1025,8 hPa 0,0 l/m 4,7 km/h (1 Bft) O 90 9,6 C 17,5 C 11,2 km/h (2 Bft)
03.06.2023 09:32 20,2 C 17,6 C 23,7 C 19,8 C 54 % 62 % 1025,8 hPa 0,0 l/m 4,0 km/h (1 Bft) O-SO 112 10,2 C 17,6 C 11,2 km/h (2 Bft)
03.06.2023 09:30 20,3 C 17,4 C 22,6 C 19,8 C 53 % 62 % 1025,8 hPa 0,0 l/m 4,0 km/h (1 Bft) NO 45 10,0 C 17,4 C 6,0 km/h (2 Bft)
03.06.2023 09:28 20,2 C 17,3 C 22,4 C 19,9 C 53 % 62 % 1025,8 hPa 0,0 l/m 4,5 km/h (1 Bft) O-SO 112 9,9 C 17,3 C 8,3 km/h (2 Bft)
03.06.2023 09:26 20,3 C 17,2 C 22,4 C 19,9 C 53 % 62 % 1025,8 hPa 0,0 l/m 4,5 km/h (1 Bft) NO 45 9,9 C 17,2 C 8,3 km/h (2 Bft)
03.06.2023 09:24 20,4 C 17,1 C 22,4 C 19,9 C 53 % 62 % 1025,8 hPa 0,0 l/m 4,5 km/h (1 Bft) O-NO 67 9,8 C 17,1 C 7,0 km/h (2 Bft)
03.06.2023 09:22 20,2 C 16,9 C 22,3 C 19,8 C 53 % 61 % 1025,8 hPa 0,0 l/m 4,8 km/h (1 Bft) O-NO 67 9,3 C 16,9 C 6,2 km/h (2 Bft)
03.06.2023 09:20 20,4 C 16,8 C 21,8 C 19,8 C 53 % 62 % 1025,8 hPa 0,0 l/m 5,0 km/h (1 Bft) NO 45 9,5 C 16,8 C 8,3 km/h (2 Bft)
03.06.2023 09:18 20,4 C 16,8 C 21,8 C 19,8 C 54 % 62 % 1025,8 hPa 0,0 l/m 5,1 km/h (1 Bft) O-NO 67 9,5 C 16,8 C 8,5 km/h (2 Bft)
03.06.2023 09:16 20,4 C 16,9 C 21,7 C 19,8 C 54 % 62 % 1025,8 hPa 0,0 l/m 5,1 km/h (1 Bft) O-NO 67 9,6 C 16,9 C 8,5 km/h (2 Bft)
03.06.2023 09:14 20,4 C 16,9 C 21,6 C 19,8 C 54 % 63 % 1025,8 hPa 0,0 l/m 5,1 km/h (1 Bft) O-NO 67 9,8 C 16,9 C 10,2 km/h (2 Bft)
03.06.2023 09:12 20,4 C 16,6 C 20,5 C 19,8 C 54 % 62 % 1025,8 hPa 0,0 l/m 5,6 km/h (1 Bft) O-SO 112 9,3 C 16,6 C 10,2 km/h (2 Bft)
03.06.2023 09:10 20,5 C 16,6 C 20,8 C 19,8 C 54 % 62 % 1025,8 hPa 0,0 l/m 5,6 km/h (1 Bft) O-SO 112 9,3 C 16,6 C 7,9 km/h (2 Bft)
03.06.2023 09:08 20,5 C 16,6 C 20,7 C 19,8 C 54 % 62 % 1025,8 hPa 0,0 l/m 5,6 km/h (1 Bft) O-NO 67 9,3 C 16,6 C 6,2 km/h (2 Bft)
03.06.2023 09:06 20,5 C 16,5 C 20,8 C 19,8 C 55 % 62 % 1025,8 hPa 0,0 l/m 5,8 km/h (2 Bft) O-NO 67 9,2 C 16,5 C 18,0 km/h (3 Bft)
03.06.2023 09:04 20,5 C 16,4 C 19,8 C 19,8 C 55 % 62 % 1025,8 hPa 0,0 l/m 6,0 km/h (2 Bft) NO 45 9,1 C 16,4 C 7,3 km/h (2 Bft)
03.06.2023 09:02 20,5 C 16,4 C 19,9 C 19,8 C 56 % 62 % 1025,8 hPa 0,0 l/m 6,1 km/h (2 Bft) O-NO 67 9,1 C 16,4 C 7,3 km/h (2 Bft)
03.06.2023 09:00 20,5 C 16,4 C 20,3 C 19,8 C 56 % 63 % 1025,8 hPa 0,0 l/m 5,5 km/h (1 Bft) O-NO 67 9,3 C 16,4 C 7,1 km/h (2 Bft)
03.06.2023 08:58 20,5 C 16,3 C 20,3 C 19,8 C 56 % 63 % 1025,8 hPa 0,0 l/m 5,3 km/h (1 Bft) O-NO 67 9,2 C 16,3 C 11,8 km/h (2 Bft)
03.06.2023 08:56 20,5 C 16,3 C 20,4 C 19,7 C 56 % 63 % 1025,8 hPa 0,0 l/m 5,0 km/h (1 Bft) O-NO 67 9,2 C 16,3 C 11,8 km/h (2 Bft)
03.06.2023 08:54 20,5 C 16,3 C 20,4 C 19,7 C 56 % 63 % 1025,8 hPa 0,0 l/m 4,7 km/h (1 Bft) O-NO 67 9,2 C 16,3 C 12,6 km/h (3 Bft)
03.06.2023 08:52 20,5 C 16,2 C 20,5 C 19,7 C 56 % 63 % 1025,8 hPa 0,0 l/m 4,8 km/h (1 Bft) O 90 9,1 C 16,2 C 12,6 km/h (3 Bft)
03.06.2023 08:50 20,5 C 16,1 C 20,2 C 19,7 C 56 % 64 % 1025,8 hPa 0,0 l/m 4,7 km/h (1 Bft) O-NO 67 9,3 C 16,1 C 6,8 km/h (2 Bft)
03.06.2023 08:48 20,5 C 16,1 C 20,0 C 19,7 C 56 % 63 % 1025,8 hPa 0,0 l/m 4,7 km/h (1 Bft) O-SO 112 9,1 C 16,1 C 6,6 km/h (2 Bft)
03.06.2023 08:46 20,4 C 16,0 C 19,7 C 19,7 C 56 % 64 % 1025,7 hPa 0,0 l/m 5,0 km/h (1 Bft) O-SO 112 9,2 C 16,0 C 9,1 km/h (2 Bft)
03.06.2023 08:44 20,5 C 15,9 C 19,4 C 19,7 C 56 % 65 % 1025,7 hPa 0,0 l/m 5,1 km/h (1 Bft) O-NO 67 9,3 C 15,9 C 10,4 km/h (2 Bft)
03.06.2023 08:42 20,5 C 15,8 C 19,7 C 19,7 C 56 % 65 % 1025,7 hPa 0,0 l/m 5,0 km/h (1 Bft) O-NO 67 9,2 C 15,8 C 10,4 km/h (2 Bft)
03.06.2023 08:40 20,4 C 15,8 C 19,3 C 19,7 C 56 % 65 % 1025,7 hPa 0,0 l/m 5,0 km/h (1 Bft) NO 45 9,2 C 15,8 C 7,0 km/h (2 Bft)
03.06.2023 08:38 20,5 C 15,7 C 18,9 C 19,7 C 56 % 66 % 1025,7 hPa 0,0 l/m 5,0 km/h (1 Bft) O-NO 67 9,4 C 15,7 C 10,4 km/h (2 Bft)
03.06.2023 08:36 20,4 C 15,6 C 18,8 C 19,8 C 56 % 64 % 1025,7 hPa 0,0 l/m 4,8 km/h (1 Bft) O 90 8,8 C 15,6 C 12,7 km/h (3 Bft)
03.06.2023 08:34 20,4 C 15,6 C 18,2 C 19,8 C 56 % 66 % 1025,7 hPa 0,0 l/m 4,5 km/h (1 Bft) O 90 9,3 C 15,6 C 7,0 km/h (2 Bft)
03.06.2023 08:32 20,4 C 15,4 C 17,9 C 19,8 C 56 % 65 % 1025,7 hPa 0,0 l/m 4,5 km/h (1 Bft) O-NO 67 8,9 C 15,4 C 10,2 km/h (2 Bft)
03.06.2023 08:30 20,4 C 15,4 C 17,9 C 19,8 C 56 % 66 % 1025,7 hPa 0,0 l/m 4,3 km/h (1 Bft) O-NO 67 9,1 C 15,4 C 10,2 km/h (2 Bft)
03.06.2023 08:28 20,4 C 15,4 C 17,3 C 19,8 C 56 % 66 % 1025,7 hPa 0,0 l/m 4,2 km/h (1 Bft) O-NO 67 9,1 C 15,4 C 8,1 km/h (2 Bft)
03.06.2023 08:26 20,4 C 15,4 C 16,9 C 19,8 C 56 % 67 % 1025,6 hPa 0,0 l/m 4,2 km/h (1 Bft) O 90 9,3 C 15,4 C 8,1 km/h (2 Bft)
03.06.2023 08:24 20,4 C 15,2 C 16,5 C 19,8 C 56 % 67 % 1025,6 hPa 0,0 l/m 4,2 km/h (1 Bft) NW 315 9,1 C 15,2 C 5,6 km/h (1 Bft)
03.06.2023 08:22 20,4 C 15,1 C 15,6 C 19,9 C 56 % 67 % 1025,6 hPa 0,0 l/m 4,3 km/h (1 Bft) NO 45 9,0 C 15,1 C 7,0 km/h (2 Bft)
03.06.2023 08:20 20,4 C 15,1 C 15,4 C 19,9 C 56 % 68 % 1025,6 hPa 0,0 l/m 4,5 km/h (1 Bft) NO 45 9,2 C 15,1 C 7,1 km/h (2 Bft)
03.06.2023 08:18 20,4 C 15,0 C 15,3 C 19,8 C 56 % 67 % 1025,6 hPa 0,0 l/m 4,3 km/h (1 Bft) O-NO 67 8,9 C 15,0 C 7,1 km/h (2 Bft)
03.06.2023 08:16 20,4 C 15,0 C 14,8 C 19,8 C 56 % 67 % 1025,6 hPa 0,0 l/m 4,3 km/h (1 Bft) O-NO 67 8,9 C 15,0 C 4,4 km/h (1 Bft)
03.06.2023 08:14 20,4 C 14,9 C 14,3 C 19,8 C 56 % 67 % 1025,6 hPa 0,0 l/m 4,5 km/h (1 Bft) O-SO 112 8,8 C 14,9 C 4,8 km/h (1 Bft)
03.06.2023 08:12 20,4 C 14,8 C 14,2 C 19,8 C 56 % 67 % 1025,6 hPa 0,0 l/m 4,5 km/h (1 Bft) O-NO 67 8,7 C 14,8 C 8,5 km/h (2 Bft)
03.06.2023 08:10 20,4 C 14,9 C 14,2 C 19,9 C 56 % 68 % 1025,6 hPa 0,0 l/m 4,5 km/h (1 Bft) O-NO 67 9,0 C 14,9 C 8,5 km/h (2 Bft)
03.06.2023 08:08 20,4 C 14,8 C 14,0 C 19,9 C 56 % 69 % 1025,6 hPa 0,0 l/m 4,2 km/h (1 Bft) O-NO 67 9,2 C 14,8 C 7,5 km/h (2 Bft)
03.06.2023 08:06 20,2 C 14,7 C 13,9 C 19,9 C 56 % 69 % 1025,5 hPa 0,0 l/m 4,3 km/h (1 Bft) O 90 9,1 C 14,7 C 7,5 km/h (2 Bft)
03.06.2023 08:04 20,4 C 14,6 C 13,7 C 19,9 C 56 % 68 % 1025,5 hPa 0,0 l/m 4,2 km/h (1 Bft) O-NO 67 8,8 C 14,6 C 7,1 km/h (2 Bft)
03.06.2023 08:02 20,4 C 14,6 C 13,5 C 19,9 C 56 % 70 % 1025,5 hPa 0,0 l/m 3,9 km/h (1 Bft) SO 135 9,2 C 14,6 C 7,1 km/h (2 Bft)
03.06.2023 08:00 20,4 C 14,4 C 13,5 C 19,9 C 56 % 70 % 1025,5 hPa 0,0 l/m 4,2 km/h (1 Bft) O-NO 67 9,0 C 14,4 C 6,2 km/h (2 Bft)
03.06.2023 07:58 20,4 C 14,3 C 13,5 C 19,9 C 56 % 69 % 1025,5 hPa 0,0 l/m 4,2 km/h (1 Bft) O-NO 67 8,7 C 14,3 C 7,0 km/h (2 Bft)
03.06.2023 07:56 20,2 C 14,1 C 13,6 C 19,9 C 56 % 70 % 1025,5 hPa 0,0 l/m 4,7 km/h (1 Bft) O-NO 67 8,7 C 14,1 C 7,0 km/h (2 Bft)
03.06.2023 07:54 20,4 C 14,0 C 13,6 C 19,9 C 56 % 70 % 1025,5 hPa 0,0 l/m 5,0 km/h (1 Bft) O-NO 67 8,6 C 14,0 C 5,8 km/h (2 Bft)
03.06.2023 07:52 20,2 C 13,9 C 13,5 C 19,9 C 56 % 70 % 1025,5 hPa 0,0 l/m 5,1 km/h (1 Bft) O-NO 67 8,5 C 13,9 C 9,8 km/h (2 Bft)
03.06.2023 07:50 20,2 C 13,8 C 13,1 C 19,9 C 56 % 70 % 1025,5 hPa 0,0 l/m 5,3 km/h (1 Bft) O-NO 67 8,4 C 13,8 C 9,8 km/h (2 Bft)
03.06.2023 07:48 20,3 C 13,8 C 13,0 C 19,9 C 56 % 71 % 1025,5 hPa 0,0 l/m 5,3 km/h (1 Bft) O-NO 67 8,6 C 13,8 C 9,8 km/h (2 Bft)
03.06.2023 07:46 20,2 C 13,7 C 13,1 C 19,9 C 56 % 71 % 1025,1 hPa 0,0 l/m 5,0 km/h (1 Bft) O-NO 67 8,5 C 13,7 C 9,8 km/h (2 Bft)
03.06.2023 07:44 20,3 C 13,7 C 13,1 C 19,9 C 56 % 71 % 1025,1 hPa 0,0 l/m 4,7 km/h (1 Bft) O-SO 112 8,5 C 13,7 C 8,3 km/h (2 Bft)
03.06.2023 07:42 20,3 C 13,6 C 13,1 C 19,9 C 56 % 71 % 1025,1 hPa 0,0 l/m 4,8 km/h (1 Bft) O-NO 67 8,4 C 13,6 C 6,6 km/h (2 Bft)
03.06.2023 07:40 20,3 C 13,6 C 12,9 C 19,9 C 56 % 72 % 1025,1 hPa 0,0 l/m 4,7 km/h (1 Bft) O 90 8,6 C 13,6 C 11,0 km/h (2 Bft)
03.06.2023 07:38 20,3 C 13,5 C 12,6 C 19,9 C 56 % 73 % 1025,1 hPa 0,0 l/m 4,2 km/h (1 Bft) O-SO 112 8,8 C 13,5 C 11,0 km/h (2 Bft)
03.06.2023 07:36 20,3 C 13,4 C 12,3 C 19,9 C 56 % 73 % 1025,1 hPa 0,0 l/m 4,2 km/h (1 Bft) O-SO 112 8,7 C 13,4 C 12,2 km/h (2 Bft)
03.06.2023 07:34 20,3 C 13,3 C 12,0 C 19,9 C 56 % 72 % 1025,1 hPa 0,0 l/m 4,2 km/h (1 Bft) O-NO 67 8,4 C 13,3 C 12,2 km/h (2 Bft)
03.06.2023 07:32 20,2 C 13,3 C 11,7 C 19,9 C 56 % 72 % 1025,1 hPa 0,0 l/m 3,7 km/h (1 Bft) NO 45 8,4 C 13,3 C 7,3 km/h (2 Bft)
03.06.2023 07:30 20,2 C 13,1 C 11,6 C 19,9 C 56 % 73 % 1025,1 hPa 0,0 l/m 3,1 km/h (1 Bft) O-SO 112 8,4 C 13,1 C 5,2 km/h (1 Bft)
03.06.2023 07:28 20,2 C 13,1 C 11,6 C 19,9 C 56 % 73 % 1025,1 hPa 0,0 l/m 2,9 km/h (1 Bft) O-NO 67 8,4 C 13,1 C 5,2 km/h (1 Bft)
03.06.2023 07:26 20,2 C 13,0 C 11,5 C 19,9 C 56 % 74 % 1025,2 hPa 0,0 l/m 2,6 km/h (1 Bft) O-NO 67 8,5 C 13,0 C 5,8 km/h (2 Bft)
03.06.2023 07:24 20,2 C 13,0 C 11,4 C 19,9 C 56 % 74 % 1025,2 hPa 0,0 l/m 2,4 km/h (1 Bft) O-NO 67 8,5 C 13,0 C 5,8 km/h (2 Bft)
03.06.2023 07:22 20,2 C 12,8 C 11,3 C 19,9 C 56 % 75 % 1025,2 hPa 0,0 l/m 2,4 km/h (1 Bft) O-NO 67 8,5 C 12,8 C 3,3 km/h (1 Bft)
03.06.2023 07:20 20,2 C 12,6 C 11,3 C 19,9 C 56 % 76 % 1025,2 hPa 0,0 l/m 2,7 km/h (1 Bft) O-SO 112 8,5 C 12,6 C 2,5 km/h (1 Bft)
03.06.2023 07:18 20,2 C 12,4 C 11,2 C 19,9 C 56 % 76 % 1025,2 hPa 0,0 l/m 3,1 km/h (1 Bft) O 90 8,3 C 12,4 C 3,3 km/h (1 Bft)
03.06.2023 07:16 20,2 C 12,4 C 11,1 C 19,9 C 56 % 76 % 1025,2 hPa 0,0 l/m 3,4 km/h (1 Bft) O-NO 67 8,3 C 12,4 C 3,9 km/h (1 Bft)
03.06.2023 07:14 20,2 C 12,3 C 11,0 C 19,9 C 56 % 76 % 1025,2 hPa 0,0 l/m 3,5 km/h (1 Bft) O-NO 67 8,2 C 12,3 C 5,2 km/h (1 Bft)
03.06.2023 07:12 20,2 C 12,2 C 11,0 C 19,9 C 56 % 76 % 1025,2 hPa 0,0 l/m 3,4 km/h (1 Bft) O-NO 67 8,1 C 12,2 C 5,2 km/h (1 Bft)
03.06.2023 07:10 20,2 C 12,1 C 10,9 C 19,9 C 56 % 76 % 1025,2 hPa 0,0 l/m 2,9 km/h (1 Bft) O-SO 112 8,0 C 12,1 C 4,2 km/h (1 Bft)
03.06.2023 07:08 20,2 C 12,0 C 10,9 C 19,9 C 56 % 77 % 1025,2 hPa 0,0 l/m 3,1 km/h (1 Bft) O-NO 67 8,1 C 12,0 C 5,6 km/h (1 Bft)
03.06.2023 07:06 20,2 C 12,0 C 10,8 C 19,9 C 56 % 77 % 1025,2 hPa 0,0 l/m 3,1 km/h (1 Bft) O-NO 67 8,1 C 12,0 C 5,6 km/h (1 Bft)
03.06.2023 07:03 20,2 C 11,9 C 10,8 C 19,9 C 56 % 77 % 1025,2 hPa 0,0 l/m 2,9 km/h (1 Bft) O-NO 67 8,0 C 11,9 C 4,4 km/h (1 Bft)
03.06.2023 07:00 20,2 C 11,8 C 10,7 C 20,0 C 56 % 78 % 1025,2 hPa 0,0 l/m 2,9 km/h (1 Bft) NO 45 8,1 C 11,8 C 4,8 km/h (1 Bft)
03.06.2023 06:58 20,2 C 11,7 C 10,6 C 20,0 C 56 % 78 % 1025,2 hPa 0,0 l/m 2,7 km/h (1 Bft) NO 45 8,0 C 11,7 C 4,8 km/h (1 Bft)
03.06.2023 06:56 20,2 C 11,6 C 10,5 C 20,0 C 56 % 79 % 1025,2 hPa 0,0 l/m 2,7 km/h (1 Bft) O-SO 112 8,1 C 11,6 C 4,2 km/h (1 Bft)
03.06.2023 06:54 20,2 C 11,5 C 10,5 C 20,0 C 56 % 79 % 1025,2 hPa 0,0 l/m 2,4 km/h (1 Bft) NO 45 8,0 C 11,5 C 4,1 km/h (1 Bft)
03.06.2023 06:52 20,1 C 11,4 C 10,4 C 20,0 C 56 % 79 % 1025,2 hPa 0,0 l/m 2,4 km/h (1 Bft) NO 45 7,9 C 11,4 C 4,1 km/h (1 Bft)
03.06.2023 06:50 20,1 C 11,3 C 10,3 C 20,0 C 56 % 79 % 1025,2 hPa 0,0 l/m 2,6 km/h (1 Bft) NO 45 7,8 C 11,3 C 3,3 km/h (1 Bft)
03.06.2023 06:48 20,1 C 11,0 C 10,3 C 20,0 C 56 % 80 % 1025,2 hPa 0,0 l/m 2,6 km/h (1 Bft) NO 45 7,7 C 11,0 C 5,4 km/h (1 Bft)
03.06.2023 06:46 20,1 C 10,9 C 10,2 C 20,0 C 56 % 80 % 1025,1 hPa 0,0 l/m 2,6 km/h (1 Bft) O-NO 67 7,6 C 10,9 C 5,4 km/h (1 Bft)
03.06.2023 06:44 20,2 C 10,8 C 10,1 C 20,0 C 56 % 80 % 1025,1 hPa 0,0 l/m 2,4 km/h (1 Bft) O-NO 67 7,5 C 10,8 C 5,4 km/h (1 Bft)
03.06.2023 06:42 20,1 C 10,8 C 10,1 C 20,0 C 56 % 80 % 1025,1 hPa 0,0 l/m 2,6 km/h (1 Bft) O 90 7,5 C 10,8 C 5,4 km/h (1 Bft)
03.06.2023 06:40 20,1 C 10,7 C 10,0 C 20,0 C 56 % 80 % 1025,1 hPa 0,0 l/m 2,3 km/h (1 Bft) N-NO 22 7,4 C 10,7 C 4,2 km/h (1 Bft)
03.06.2023 06:38 20,1 C 10,5 C 9,9 C 20,0 C 56 % 80 % 1025,1 hPa 0,0 l/m 1,9 km/h (1 Bft) O-NO 67 7,2 C 10,5 C 3,3 km/h (1 Bft)
03.06.2023 06:36 20,1 C 10,3 C 9,8 C 20,0 C 56 % 80 % 1025,1 hPa 0,0 l/m 1,4 km/h (1 Bft) NO 45 7,0 C 10,3 C 4,1 km/h (1 Bft)
03.06.2023 06:34 20,1 C 10,2 C 9,8 C 20,0 C 56 % 80 % 1025,1 hPa 0,0 l/m 1,4 km/h (1 Bft) NO 45 6,9 C 10,2 C 4,1 km/h (1 Bft)
03.06.2023 06:32 20,1 C 10,1 C 9,6 C 20,0 C 56 % 80 % 1025,1 hPa 0,0 l/m 1,3 km/h (1 Bft) O-NO 67 6,8 C 10,1 C 4,1 km/h (1 Bft)
03.06.2023 06:30 20,2 C 10,1 C 9,6 C 20,0 C 56 % 80 % 1025,1 hPa 0,0 l/m 1,4 km/h (1 Bft) NO 45 6,8 C 10,1 C 2,3 km/h (1 Bft)
03.06.2023 06:28 20,1 C 10,0 C 9,6 C 20,0 C 56 % 81 % 1025,1 hPa 0,0 l/m 1,6 km/h (1 Bft) NO 45 6,9 C 10,0 C 2,9 km/h (1 Bft)
03.06.2023 06:26 20,1 C 10,0 C 9,5 C 20,0 C 56 % 81 % 1024,9 hPa 0,0 l/m 1,8 km/h (1 Bft) NO 45 6,9 C 10,0 C 2,9 km/h (1 Bft)
03.06.2023 06:24 20,1 C 9,9 C 9,4 C 20,0 C 56 % 81 % 1024,9 hPa 0,0 l/m 1,8 km/h (1 Bft) O-NO 67 6,8 C 9,9 C 2,5 km/h (1 Bft)
03.06.2023 06:22 20,1 C 9,9 C 9,3 C 20,0 C 56 % 81 % 1024,9 hPa 0,0 l/m 1,8 km/h (1 Bft) NO 45 6,8 C 9,9 C 2,5 km/h (1 Bft)
03.06.2023 06:20 20,1 C 9,6 C 9,1 C 20,0 C 56 % 81 % 1024,9 hPa 0,0 l/m 1,6 km/h (1 Bft) O-NO 67 6,5 C 9,6 C 3,3 km/h (1 Bft)
03.06.2023 06:18 20,1 C 9,5 C 9,1 C 20,0 C 56 % 81 % 1024,9 hPa 0,0 l/m 1,4 km/h (1 Bft) O-NO 67 6,4 C 9,5 C 3,3 km/h (1 Bft)
03.06.2023 06:16 20,1 C 9,4 C 9,1 C 20,0 C 56 % 81 % 1024,9 hPa 0,0 l/m 1,3 km/h (1 Bft) O-NO 67 6,3 C 9,4 C 3,3 km/h (1 Bft)
03.06.2023 06:14 20,1 C 9,4 C 8,9 C 20,1 C 56 % 81 % 1024,9 hPa 0,0 l/m 1,0 km/h (0 Bft) O-NO 67 6,3 C 9,4 C 2,5 km/h (1 Bft)
03.06.2023 06:12 20,1 C 9,4 C 8,9 C 20,1 C 56 % 81 % 1024,9 hPa 0,0 l/m 0,8 km/h (0 Bft) O-NO 67 6,3 C 9,4 C 2,5 km/h (1 Bft)
03.06.2023 06:10 20,1 C 9,1 C 8,5 C 20,1 C 56 % 81 % 1024,9 hPa 0,0 l/m 0,5 km/h (0 Bft) NO 45 6,0 C 9,1 C 2,3 km/h (1 Bft)
03.06.2023 06:08 20,1 C 9,1 C 8,5 C 20,1 C 56 % 81 % 1024,9 hPa 0,0 l/m 0,5 km/h (0 Bft) NO 45 6,0 C 9,1 C 2,3 km/h (1 Bft)
03.06.2023 06:06 20,1 C 9,1 C 8,5 C 20,1 C 56 % 81 % 1024,8 hPa 0,0 l/m 0,5 km/h (0 Bft) NO 45 6,0 C 9,1 C 2,3 km/h (1 Bft)
03.06.2023 06:04 20,1 C 9,1 C 8,5 C 20,1 C 56 % 81 % 1024,8 hPa 0,0 l/m 0,5 km/h (0 Bft) NO 45 6,0 C 9,1 C 2,3 km/h (1 Bft)
03.06.2023 06:02 20,1 C 9,1 C 8,5 C 20,1 C 56 % 81 % 1024,8 hPa 0,0 l/m 0,5 km/h (0 Bft) NO 45 6,0 C 9,1 C 2,3 km/h (1 Bft)
03.06.2023 06:00 20,1 C 9,0 C 8,4 C 20,2 C 56 % 81 % 1024,8 hPa 0,0 l/m 0,5 km/h (0 Bft) O-NO 67 5,9 C 9,0 C 2,1 km/h (1 Bft)
03.06.2023 05:58 20,2 C 8,9 C 8,2 C 20,1 C 56 % 81 % 1024,8 hPa 0,0 l/m 0,5 km/h (0 Bft) O-NO 67 5,8 C 8,9 C 2,1 km/h (1 Bft)
03.06.2023 05:56 20,1 C 8,9 C 8,2 C 20,2 C 56 % 81 % 1024,8 hPa 0,0 l/m 0,5 km/h (0 Bft) NO 45 5,8 C 8,9 C 3,1 km/h (1 Bft)
03.06.2023 05:54 20,2 C 8,8 C 8,1 C 20,2 C 56 % 81 % 1024,8 hPa 0,0 l/m 0,6 km/h (0 Bft) O-NO 67 5,7 C 8,8 C 3,1 km/h (1 Bft)
03.06.2023 05:52 20,2 C 8,9 C 8,1 C 20,2 C 56 % 81 % 1024,8 hPa 0,0 l/m 0,5 km/h (0 Bft) O-NO 67 5,8 C 8,9 C 0,0 km/h (0 Bft)
03.06.2023 05:50 20,2 C 8,8 C 8,1 C 20,2 C 56 % 81 % 1024,8 hPa 0,0 l/m 0,5 km/h (0 Bft) O-NO 67 5,7 C 8,8 C 0,0 km/h (0 Bft)
03.06.2023 05:48 20,2 C 8,8 C 7,9 C 20,2 C 56 % 81 % 1024,8 hPa 0,0 l/m 0,5 km/h (0 Bft) NO 45 5,7 C 8,8 C 2,1 km/h (1 Bft)
03.06.2023 05:46 20,2 C 8,8 C 7,9 C 20,2 C 56 % 81 % 1024,9 hPa 0,0 l/m 0,3 km/h (0 Bft) NO 45 5,7 C 8,8 C 2,1 km/h (1 Bft)
03.06.2023 05:44 20,2 C 8,7 C 7,7 C 20,2 C 56 % 81 % 1024,9 hPa 0,0 l/m 0,2 km/h (0 Bft) O-NO 67 5,6 C 8,7 C 0,0 km/h (0 Bft)
03.06.2023 05:42 20,2 C 8,7 C 7,7 C 20,2 C 56 % 80 % 1024,9 hPa 0,0 l/m 0,0 km/h (0 Bft) NO 45 5,4 C 8,7 C 0,0 km/h (0 Bft)
03.06.2023 05:40 20,2 C 8,8 C 7,6 C 20,3 C 56 % 80 % 1024,9 hPa 0,0 l/m 0,0 km/h (0 Bft) NO 45 5,5 C 8,8 C 0,0 km/h (0 Bft)
03.06.2023 05:38 20,2 C 8,8 C 7,6 C 20,3 C 56 % 80 % 1024,9 hPa 0,0 l/m 0,0 km/h (0 Bft) NO 45 5,5 C 8,8 C 0,0 km/h (0 Bft)
03.06.2023 05:36 20,2 C 8,8 C 7,6 C 20,3 C 56 % 80 % 1024,9 hPa 0,0 l/m 0,0 km/h (0 Bft) NO 45 5,5 C 8,8 C 0,0 km/h (0 Bft)
03.06.2023 05:34 20,2 C 8,9 C 7,6 C 20,3 C 56 % 80 % 1024,9 hPa 0,0 l/m 0,0 km/h (0 Bft) O-NO 67 5,6 C 8,9 C 0,0 km/h (0 Bft)
03.06.2023 05:32 20,2 C 8,9 C 7,6 C 20,3 C 56 % 80 % 1024,9 hPa 0,0 l/m 0,0 km/h (0 Bft) O-NO 67 5,6 C 8,9 C 0,0 km/h (0 Bft)
03.06.2023 05:30 20,2 C 8,9 C 7,6 C 20,3 C 56 % 80 % 1024,9 hPa 0,0 l/m 0,0 km/h (0 Bft) O-NO 67 5,6 C 8,9 C 0,0 km/h (0 Bft)
03.06.2023 05:28 20,2 C 8,9 C 7,6 C 20,3 C 56 % 80 % 1024,9 hPa 0,0 l/m 0,0 km/h (0 Bft) O-NO 67 5,6 C 8,9 C 0,0 km/h (0 Bft)
03.06.2023 05:26 20,2 C 8,9 C 7,5 C 20,3 C 56 % 80 % 1024,6 hPa 0,0 l/m 0,0 km/h (0 Bft) O-NO 67 5,6 C 8,9 C 0,0 km/h (0 Bft)
03.06.2023 05:24 20,2 C 8,9 C 7,4 C 20,3 C 56 % 80 % 1024,6 hPa 0,0 l/m 0,0 km/h (0 Bft) NO 45 5,6 C 8,9 C 0,0 km/h (0 Bft)
03.06.2023 05:22 20,2 C 8,9 C 7,5 C 20,3 C 56 % 80 % 1024,6 hPa 0,0 l/m 0,0 km/h (0 Bft) NO 45 5,6 C 8,9 C 0,0 km/h (0 Bft)
03.06.2023 05:20 20,2 C 8,8 C 7,4 C 20,4 C 56 % 79 % 1024,6 hPa 0,0 l/m 0,0 km/h (0 Bft) NO 45 5,4 C 8,8 C 0,0 km/h (0 Bft)
03.06.2023 05:18 20,2 C 8,8 C 7,4 C 20,4 C 56 % 79 % 1024,6 hPa 0,0 l/m 0,0 km/h (0 Bft) O-NO 67 5,4 C 8,8 C 0,0 km/h (0 Bft)
03.06.2023 05:16 20,2 C 8,8 C 7,4 C 20,4 C 56 % 79 % 1024,6 hPa 0,0 l/m 0,0 km/h (0 Bft) NO 45 5,4 C 8,8 C 0,0 km/h (0 Bft)
03.06.2023 05:14 20,2 C 8,9 C 7,5 C 20,4 C 56 % 79 % 1024,6 hPa 0,0 l/m 0,2 km/h (0 Bft) NO 45 5,5 C 8,9 C 0,0 km/h (0 Bft)
03.06.2023 05:12 20,2 C 8,9 C 7,5 C 20,4 C 56 % 79 % 1024,6 hPa 0,0 l/m 0,2 km/h (0 Bft) NO 45 5,5 C 8,9 C 0,0 km/h (0 Bft)
03.06.2023 05:10 20,2 C 8,9 C 7,5 C 20,4 C 56 % 79 % 1024,6 hPa 0,0 l/m 0,2 km/h (0 Bft) NO 45 5,5 C 8,9 C 0,0 km/h (0 Bft)
03.06.2023 05:08 20,2 C 9,0 C 7,4 C 20,3 C 56 % 79 % 1024,6 hPa 0,0 l/m 0,2 km/h (0 Bft) NO 45 5,6 C 9,0 C 0,0 km/h (0 Bft)
03.06.2023 05:06 20,2 C 9,0 C 7,5 C 20,3 C 56 % 79 % 1024,5 hPa 0,0 l/m 0,3 km/h (0 Bft) NO 45 5,6 C 9,0 C 0,0 km/h (0 Bft)
03.06.2023 05:04 20,2 C 9,0 C 7,5 C 20,3 C 56 % 79 % 1024,5 hPa 0,0 l/m 0,2 km/h (0 Bft) NO 45 5,6 C 9,0 C 0,0 km/h (0 Bft)
03.06.2023 05:02 20,2 C 9,1 C 7,4 C 20,4 C 56 % 79 % 1024,5 hPa 0,0 l/m 0,3 km/h (0 Bft) NO 45 5,7 C 9,1 C 0,0 km/h (0 Bft)
03.06.2023 05:00 20,2 C 9,1 C 7,4 C 20,4 C 56 % 79 % 1024,5 hPa 0,0 l/m 0,3 km/h (0 Bft) O-NO 67 5,7 C 9,1 C 1,9 km/h (1 Bft)
03.06.2023 04:58 20,2 C 9,1 C 7,5 C 20,4 C 56 % 79 % 1024,5 hPa 0,0 l/m 0,3 km/h (0 Bft) NO 45 5,7 C 9,1 C 2,1 km/h (1 Bft)
03.06.2023 04:56 20,2 C 9,2 C 7,5 C 20,4 C 56 % 79 % 1024,5 hPa 0,0 l/m 0,3 km/h (0 Bft) NO 45 5,8 C 9,2 C 2,1 km/h (1 Bft)
03.06.2023 04:54 20,2 C 9,2 C 7,5 C 20,4 C 56 % 79 % 1024,5 hPa 0,0 l/m 0,6 km/h (0 Bft) NO 45 5,8 C 9,2 C 0,0 km/h (0 Bft)
03.06.2023 04:52 20,2 C 9,2 C 7,5 C 20,4 C 56 % 79 % 1024,5 hPa 0,0 l/m 0,8 km/h (0 Bft) NO 45 5,8 C 9,2 C 0,0 km/h (0 Bft)
03.06.2023 04:50 20,2 C 9,2 C 7,5 C 20,4 C 56 % 79 % 1024,5 hPa 0,0 l/m 1,0 km/h (0 Bft) NO 45 5,8 C 9,2 C 0,0 km/h (0 Bft)
03.06.2023 04:48 20,2 C 9,3 C 7,5 C 20,4 C 56 % 79 % 1024,5 hPa 0,0 l/m 1,1 km/h (1 Bft) NO 45 5,8 C 9,3 C 0,0 km/h (0 Bft)
03.06.2023 04:46 20,3 C 9,3 C 7,5 C 20,4 C 56 % 79 % 1024,4 hPa 0,0 l/m 1,3 km/h (1 Bft) NO 45 5,8 C 9,3 C 3,1 km/h (1 Bft)
03.06.2023 04:44 20,3 C 9,3 C 7,5 C 20,5 C 56 % 78 % 1024,4 hPa 0,0 l/m 1,1 km/h (1 Bft) NO 45 5,7 C 9,3 C 3,1 km/h (1 Bft)
03.06.2023 04:42 20,3 C 9,3 C 7,5 C 20,5 C 56 % 78 % 1024,4 hPa 0,0 l/m 1,0 km/h (0 Bft) NO 45 5,7 C 9,3 C 2,3 km/h (1 Bft)
03.06.2023 04:40 20,3 C 9,3 C 7,7 C 20,5 C 56 % 78 % 1024,4 hPa 0,0 l/m 0,6 km/h (0 Bft) N-NO 22 5,7 C 9,3 C 1,9 km/h (1 Bft)
03.06.2023 04:38 20,3 C 9,4 C 7,6 C 20,5 C 56 % 78 % 1024,4 hPa 0,0 l/m 0,5 km/h (0 Bft) NO 45 5,8 C 9,4 C 2,5 km/h (1 Bft)
03.06.2023 04:36 20,3 C 9,4 C 7,6 C 20,5 C 56 % 78 % 1024,4 hPa 0,0 l/m 0,5 km/h (0 Bft) NO 45 5,8 C 9,4 C 2,5 km/h (1 Bft)
03.06.2023 04:34 20,3 C 9,5 C 7,6 C 20,5 C 56 % 78 % 1024,4 hPa 0,0 l/m 0,2 km/h (0 Bft) NO 45 5,9 C 9,5 C 2,5 km/h (1 Bft)
03.06.2023 04:32 20,3 C 9,5 C 7,7 C 20,5 C 56 % 78 % 1024,4 hPa 0,0 l/m 0,2 km/h (0 Bft) NO 45 5,9 C 9,5 C 0,0 km/h (0 Bft)
03.06.2023 04:30 20,3 C 9,5 C 7,7 C 20,5 C 56 % 78 % 1024,4 hPa 0,0 l/m 0,2 km/h (0 Bft) N-NO 22 5,9 C 9,5 C 0,0 km/h (0 Bft)
03.06.2023 04:28 20,3 C 9,5 C 7,8 C 20,5 C 56 % 78 % 1024,4 hPa 0,0 l/m 0,3 km/h (0 Bft) NO 45 5,9 C 9,5 C 0,0 km/h (0 Bft)
03.06.2023 04:26 20,3 C 9,6 C 7,8 C 20,6 C 56 % 78 % 1024,6 hPa 0,0 l/m 0,5 km/h (0 Bft) NO 45 6,0 C 9,6 C 1,9 km/h (1 Bft)
03.06.2023 04:24 20,3 C 9,6 C 7,8 C 20,6 C 56 % 78 % 1024,6 hPa 0,0 l/m 0,8 km/h (0 Bft) NO 45 6,0 C 9,6 C 1,9 km/h (1 Bft)
03.06.2023 04:22 20,3 C 9,6 C 7,7 C 20,6 C 56 % 78 % 1024,6 hPa 0,0 l/m 1,0 km/h (0 Bft) N-NO 22 6,0 C 9,6 C 0,0 km/h (0 Bft)
03.06.2023 04:20 20,3 C 9,6 C 7,7 C 20,6 C 56 % 78 % 1024,6 hPa 0,0 l/m 1,1 km/h (1 Bft) N-NO 22 6,0 C 9,6 C 2,3 km/h (1 Bft)
03.06.2023 04:18 20,2 C 9,8 C 7,8 C 20,6 C 56 % 78 % 1024,6 hPa 0,0 l/m 1,3 km/h (1 Bft) N-NO 22 6,1 C 9,8 C 2,3 km/h (1 Bft)
03.06.2023 04:16 20,2 C 9,8 C 7,8 C 20,6 C 56 % 78 % 1024,6 hPa 0,0 l/m 1,4 km/h (1 Bft) NO 45 6,1 C 9,8 C 2,9 km/h (1 Bft)
03.06.2023 04:14 20,2 C 9,7 C 7,8 C 20,6 C 56 % 77 % 1024,6 hPa 0,0 l/m 1,3 km/h (1 Bft) NO 45 5,9 C 9,7 C 2,9 km/h (1 Bft)
03.06.2023 04:12 20,2 C 9,8 C 7,8 C 20,6 C 56 % 77 % 1024,6 hPa 0,0 l/m 1,1 km/h (1 Bft) NO 45 6,0 C 9,8 C 2,1 km/h (1 Bft)
03.06.2023 04:10 20,3 C 9,9 C 8,0 C 20,6 C 56 % 77 % 1024,6 hPa 0,0 l/m 1,1 km/h (1 Bft) NO 45 6,1 C 9,9 C 2,5 km/h (1 Bft)
03.06.2023 04:08 20,3 C 9,9 C 7,9 C 20,7 C 56 % 77 % 1024,6 hPa 0,0 l/m 1,0 km/h (0 Bft) NO 45 6,1 C 9,9 C 2,5 km/h (1 Bft)
03.06.2023 04:06 20,2 C 10,0 C 7,9 C 20,7 C 56 % 77 % 1024,4 hPa 0,0 l/m 1,0 km/h (0 Bft) NO 45 6,2 C 10,0 C 2,9 km/h (1 Bft)
03.06.2023 04:04 20,2 C 10,0 C 7,9 C 20,7 C 56 % 77 % 1024,4 hPa 0,0 l/m 1,1 km/h (1 Bft) O-NO 67 6,2 C 10,0 C 2,9 km/h (1 Bft)
03.06.2023 04:02 20,2 C 10,0 C 8,0 C 20,7 C 56 % 77 % 1024,4 hPa 0,0 l/m 1,1 km/h (1 Bft) NO 45 6,2 C 10,0 C 1,9 km/h (1 Bft)
03.06.2023 04:00 20,2 C 10,1 C 8,1 C 20,7 C 56 % 77 % 1024,4 hPa 0,0 l/m 1,3 km/h (1 Bft) NO 45 6,3 C 10,1 C 2,5 km/h (1 Bft)
03.06.2023 03:58 20,2 C 10,1 C 8,1 C 20,7 C 56 % 77 % 1024,4 hPa 0,0 l/m 1,8 km/h (1 Bft) NO 45 6,3 C 10,1 C 2,1 km/h (1 Bft)
03.06.2023 03:56 20,4 C 10,2 C 8,0 C 20,7 C 56 % 77 % 1024,4 hPa 0,0 l/m 1,8 km/h (1 Bft) NO 45 6,4 C 10,2 C 2,1 km/h (1 Bft)
03.06.2023 03:54 20,2 C 10,3 C 8,1 C 20,7 C 56 % 77 % 1024,4 hPa 0,0 l/m 1,8 km/h (1 Bft) NO 45 6,4 C 10,3 C 2,3 km/h (1 Bft)
03.06.2023 03:52 20,2 C 10,3 C 8,0 C 20,7 C 56 % 77 % 1024,4 hPa 0,0 l/m 2,1 km/h (1 Bft) NO 45 6,4 C 10,3 C 3,3 km/h (1 Bft)
03.06.2023 03:50 20,4 C 10,3 C 8,0 C 20,8 C 56 % 77 % 1024,4 hPa 0,0 l/m 2,3 km/h (1 Bft) NO 45 6,4 C 10,3 C 3,3 km/h (1 Bft)
03.06.2023 03:48 20,4 C 10,4 C 8,1 C 20,8 C 56 % 77 % 1024,4 hPa 0,0 l/m 1,9 km/h (1 Bft) N-NO 22 6,5 C 10,4 C 2,5 km/h (1 Bft)
03.06.2023 03:46 20,4 C 10,5 C 8,2 C 20,8 C 56 % 77 % 1024,8 hPa 0,0 l/m 1,9 km/h (1 Bft) N-NO 22 6,6 C 10,5 C 3,3 km/h (1 Bft)
03.06.2023 03:44 20,4 C 10,5 C 8,5 C 20,8 C 56 % 77 % 1024,8 hPa 0,0 l/m 1,8 km/h (1 Bft) NO 45 6,6 C 10,5 C 3,3 km/h (1 Bft)
03.06.2023 03:42 20,4 C 10,5 C 8,3 C 20,8 C 56 % 77 % 1024,8 hPa 0,0 l/m 1,4 km/h (1 Bft) NO 45 6,6 C 10,5 C 2,9 km/h (1 Bft)
03.06.2023 03:40 20,4 C 10,5 C 8,2 C 20,8 C 56 % 77 % 1024,8 hPa 0,0 l/m 1,0 km/h (0 Bft) O-NO 67 6,6 C 10,5 C 2,9 km/h (1 Bft)
03.06.2023 03:38 20,4 C 10,5 C 8,3 C 20,8 C 56 % 77 % 1024,8 hPa 0,0 l/m 1,0 km/h (0 Bft) NO 45 6,6 C 10,5 C 2,7 km/h (1 Bft)
03.06.2023 03:36 20,4 C 10,5 C 8,3 C 20,8 C 56 % 77 % 1024,8 hPa 0,0 l/m 1,1 km/h (1 Bft) NO 45 6,6 C 10,5 C 2,5 km/h (1 Bft)
03.06.2023 03:34 20,4 C 10,5 C 8,5 C 20,8 C 56 % 77 % 1024,8 hPa 0,0 l/m 1,1 km/h (1 Bft) N-NO 22 6,6 C 10,5 C 2,3 km/h (1 Bft)
03.06.2023 03:32 20,4 C 10,6 C 8,3 C 20,9 C 56 % 77 % 1024,8 hPa 0,0 l/m 1,4 km/h (1 Bft) NO 45 6,7 C 10,6 C 3,7 km/h (1 Bft)
03.06.2023 03:30 20,4 C 10,6 C 8,6 C 20,9 C 56 % 77 % 1024,8 hPa 0,0 l/m 1,8 km/h (1 Bft) NO 45 6,7 C 10,6 C 3,7 km/h (1 Bft)
03.06.2023 03:28 20,4 C 10,6 C 8,7 C 20,9 C 56 % 77 % 1024,8 hPa 0,0 l/m 1,8 km/h (1 Bft) NO 45 6,7 C 10,6 C 3,7 km/h (1 Bft)
03.06.2023 03:26 20,4 C 10,6 C 8,5 C 20,9 C 56 % 77 % 1024,9 hPa 0,0 l/m 1,9 km/h (1 Bft) NO 45 6,7 C 10,6 C 3,3 km/h (1 Bft)
03.06.2023 03:24 20,4 C 10,6 C 8,3 C 20,9 C 56 % 77 % 1024,9 hPa 0,0 l/m 2,1 km/h (1 Bft) NO 45 6,7 C 10,6 C 3,5 km/h (1 Bft)
03.06.2023 03:22 20,4 C 10,6 C 8,3 C 20,9 C 56 % 77 % 1024,9 hPa 0,0 l/m 2,1 km/h (1 Bft) N-NO 22 6,7 C 10,6 C 3,7 km/h (1 Bft)
03.06.2023 03:20 20,4 C 10,6 C 8,3 C 20,9 C 56 % 77 % 1024,9 hPa 0,0 l/m 2,1 km/h (1 Bft) NO 45 6,7 C 10,6 C 3,7 km/h (1 Bft)
03.06.2023 03:18 20,4 C 10,6 C 8,6 C 20,9 C 56 % 77 % 1024,9 hPa 0,0 l/m 2,1 km/h (1 Bft) NO 45 6,7 C 10,6 C 3,9 km/h (1 Bft)
03.06.2023 03:16 20,4 C 10,5 C 8,7 C 20,9 C 56 % 77 % 1024,9 hPa 0,0 l/m 2,1 km/h (1 Bft) NO 45 6,6 C 10,5 C 4,8 km/h (1 Bft)
03.06.2023 03:14 20,4 C 10,5 C 8,5 C 21,0 C 56 % 77 % 1024,9 hPa 0,0 l/m 1,9 km/h (1 Bft) O-NO 67 6,6 C 10,5 C 4,8 km/h (1 Bft)
03.06.2023 03:12 20,4 C 10,4 C 8,5 C 21,0 C 56 % 77 % 1024,9 hPa 0,0 l/m 1,9 km/h (1 Bft) NO 45 6,5 C 10,4 C 2,7 km/h (1 Bft)
03.06.2023 03:10 20,4 C 10,4 C 8,5 C 21,0 C 56 % 77 % 1024,9 hPa 0,0 l/m 2,1 km/h (1 Bft) N-NO 22 6,5 C 10,4 C 2,7 km/h (1 Bft)
03.06.2023 03:08 20,4 C 10,4 C 8,5 C 21,0 C 56 % 77 % 1024,9 hPa 0,0 l/m 2,1 km/h (1 Bft) N-NO 22 6,5 C 10,4 C 2,7 km/h (1 Bft)
03.06.2023 03:06 20,4 C 10,4 C 8,5 C 21,0 C 56 % 77 % 1025,1 hPa 0,0 l/m 2,1 km/h (1 Bft) N-NO 22 6,5 C 10,4 C 2,7 km/h (1 Bft)
03.06.2023 03:04 20,4 C 10,4 C 8,5 C 21,0 C 56 % 77 % 1025,1 hPa 0,0 l/m 2,1 km/h (1 Bft) N-NO 22 6,5 C 10,4 C 2,7 km/h (1 Bft)
03.06.2023 03:02 20,4 C 10,4 C 8,5 C 21,0 C 56 % 77 % 1025,1 hPa 0,0 l/m 2,1 km/h (1 Bft) N-NO 22 6,5 C 10,4 C 2,7 km/h (1 Bft)
03.06.2023 03:00 20,4 C 10,4 C 8,5 C 21,0 C 56 % 77 % 1025,1 hPa 0,0 l/m 2,1 km/h (1 Bft) NO 45 6,5 C 10,4 C 2,7 km/h (1 Bft)
03.06.2023 02:58 20,4 C 10,4 C 8,6 C 21,0 C 56 % 77 % 1025,1 hPa 0,0 l/m 2,1 km/h (1 Bft) N-NO 22 6,5 C 10,4 C 2,7 km/h (1 Bft)
03.06.2023 02:56 20,4 C 10,4 C 8,6 C 21,1 C 56 % 77 % 1025,1 hPa 0,0 l/m 2,1 km/h (1 Bft) NO 45 6,5 C 10,4 C 3,1 km/h (1 Bft)
03.06.2023 02:54 20,4 C 10,4 C 8,6 C 21,1 C 56 % 76 % 1025,1 hPa 0,0 l/m 2,1 km/h (1 Bft) NO 45 6,4 C 10,4 C 3,1 km/h (1 Bft)
03.06.2023 02:52 20,4 C 10,4 C 8,5 C 21,1 C 56 % 76 % 1025,1 hPa 0,0 l/m 2,1 km/h (1 Bft) NO 45 6,4 C 10,4 C 3,1 km/h (1 Bft)
03.06.2023 02:50 20,4 C 10,4 C 8,5 C 21,1 C 56 % 76 % 1025,1 hPa 0,0 l/m 2,1 km/h (1 Bft) N-NO 22 6,4 C 10,4 C 3,3 km/h (1 Bft)
03.06.2023 02:48 20,4 C 10,4 C 8,6 C 21,1 C 56 % 76 % 1025,1 hPa 0,0 l/m 1,9 km/h (1 Bft) N-NO 22 6,4 C 10,4 C 3,3 km/h (1 Bft)
03.06.2023 02:46 20,4 C 10,5 C 8,6 C 21,1 C 56 % 76 % 1024,8 hPa 0,0 l/m 1,9 km/h (1 Bft) N-NO 22 6,5 C 10,5 C 3,1 km/h (1 Bft)
03.06.2023 02:44 20,4 C 10,5 C 8,5 C 21,1 C 56 % 76 % 1024,8 hPa 0,0 l/m 1,9 km/h (1 Bft) NO 45 6,5 C 10,5 C 3,1 km/h (1 Bft)
03.06.2023 02:42 20,4 C 10,5 C 8,6 C 21,1 C 56 % 76 % 1024,8 hPa 0,0 l/m 1,9 km/h (1 Bft) NO 45 6,5 C 10,5 C 2,7 km/h (1 Bft)
03.06.2023 02:40 20,5 C 10,6 C 8,7 C 21,2 C 56 % 76 % 1024,8 hPa 0,0 l/m 1,9 km/h (1 Bft) NO 45 6,5 C 10,6 C 2,7 km/h (1 Bft)
03.06.2023 02:38 20,4 C 10,6 C 8,7 C 21,2 C 56 % 76 % 1024,8 hPa 0,0 l/m 1,9 km/h (1 Bft) NO 45 6,5 C 10,6 C 2,5 km/h (1 Bft)
03.06.2023 02:36 20,5 C 10,7 C 8,8 C 21,2 C 56 % 76 % 1024,8 hPa 0,0 l/m 1,8 km/h (1 Bft) NO 45 6,6 C 10,7 C 2,7 km/h (1 Bft)
03.06.2023 02:34 20,4 C 10,7 C 8,8 C 21,2 C 56 % 76 % 1024,8 hPa 0,0 l/m 1,6 km/h (1 Bft) NO 45 6,6 C 10,7 C 2,7 km/h (1 Bft)
03.06.2023 02:32 20,5 C 10,7 C 8,7 C 21,2 C 56 % 76 % 1024,8 hPa 0,0 l/m 1,4 km/h (1 Bft) NO 45 6,6 C 10,7 C 2,7 km/h (1 Bft)
03.06.2023 02:30 20,4 C 10,8 C 8,8 C 21,2 C 56 % 75 % 1024,8 hPa 0,0 l/m 1,3 km/h (1 Bft) N-NO 22 6,5 C 10,8 C 2,7 km/h (1 Bft)
03.06.2023 02:28 20,5 C 10,8 C 8,8 C 21,2 C 56 % 75 % 1024,8 hPa 0,0 l/m 1,0 km/h (0 Bft) NO 45 6,5 C 10,8 C 2,5 km/h (1 Bft)
03.06.2023 02:26 20,5 C 10,9 C 8,9 C 21,2 C 56 % 75 % 1024,8 hPa 0,0 l/m 0,8 km/h (0 Bft) NO 45 6,6 C 10,9 C 2,5 km/h (1 Bft)
03.06.2023 02:24 20,5 C 11,0 C 8,9 C 21,3 C 56 % 75 % 1024,8 hPa 0,0 l/m 1,0 km/h (0 Bft) NO 45 6,7 C 11,0 C 2,5 km/h (1 Bft)
03.06.2023 02:22 20,5 C 11,0 C 8,9 C 21,3 C 56 % 75 % 1024,8 hPa 0,0 l/m 1,1 km/h (1 Bft) NO 45 6,7 C 11,0 C 2,3 km/h (1 Bft)
03.06.2023 02:20 20,5 C 11,1 C 8,9 C 21,3 C 56 % 75 % 1024,8 hPa 0,0 l/m 1,4 km/h (1 Bft) NO 45 6,8 C 11,1 C 2,1 km/h (1 Bft)
03.06.2023 02:18 20,5 C 11,3 C 8,9 C 21,3 C 56 % 75 % 1024,8 hPa 0,0 l/m 1,8 km/h (1 Bft) N-NO 22 7,0 C 11,3 C 2,3 km/h (1 Bft)
03.06.2023 02:16 20,5 C 11,3 C 8,9 C 21,3 C 56 % 75 % 1024,8 hPa 0,0 l/m 1,9 km/h (1 Bft) N-NO 22 7,0 C 11,3 C 2,5 km/h (1 Bft)
03.06.2023 02:14 20,5 C 11,4 C 9,0 C 21,3 C 56 % 75 % 1024,8 hPa 0,0 l/m 2,3 km/h (1 Bft) N-NO 22 7,1 C 11,4 C 2,7 km/h (1 Bft)
03.06.2023 02:12 20,5 C 11,5 C 8,9 C 21,3 C 56 % 75 % 1024,8 hPa 0,0 l/m 1,8 km/h (1 Bft) NO 45 7,2 C 11,5 C 2,7 km/h (1 Bft)
03.06.2023 02:10 20,5 C 11,5 C 8,9 C 21,4 C 56 % 75 % 1024,8 hPa 0,0 l/m 1,6 km/h (1 Bft) NO 45 7,2 C 11,5 C 2,9 km/h (1 Bft)
03.06.2023 02:08 20,5 C 11,5 C 8,9 C 21,4 C 56 % 75 % 1024,8 hPa 0,0 l/m 1,3 km/h (1 Bft) NO 45 7,2 C 11,5 C 3,5 km/h (1 Bft)
03.06.2023 02:06 20,5 C 11,4 C 8,9 C 21,4 C 56 % 74 % 1024,7 hPa 0,0 l/m 0,8 km/h (0 Bft) O-NO 67 6,9 C 11,4 C 3,5 km/h (1 Bft)
03.06.2023 02:04 20,5 C 11,4 C 9,0 C 21,4 C 56 % 74 % 1024,7 hPa 0,0 l/m 0,6 km/h (0 Bft) NO 45 6,9 C 11,4 C 3,1 km/h (1 Bft)
03.06.2023 02:02 20,5 C 11,4 C 9,0 C 21,4 C 56 % 74 % 1024,7 hPa 0,0 l/m 0,8 km/h (0 Bft) NO 45 6,9 C 11,4 C 0,0 km/h (0 Bft)
03.06.2023 02:00 20,5 C 11,5 C 9,0 C 21,4 C 56 % 74 % 1024,7 hPa 0,0 l/m 1,0 km/h (0 Bft) NO 45 7,0 C 11,5 C 2,7 km/h (1 Bft)
03.06.2023 01:58 20,5 C 11,5 C 9,1 C 21,4 C 56 % 74 % 1024,7 hPa 0,0 l/m 1,1 km/h (1 Bft) NO 45 7,0 C 11,5 C 0,0 km/h (0 Bft)
03.06.2023 01:56 20,5 C 11,6 C 9,1 C 21,5 C 56 % 74 % 1024,7 hPa 0,0 l/m 1,1 km/h (1 Bft) NO 45 7,1 C 11,6 C 2,7 km/h (1 Bft)
03.06.2023 01:54 20,5 C 11,7 C 9,1 C 21,5 C 56 % 74 % 1024,7 hPa 0,0 l/m 1,0 km/h (0 Bft) NO 45 7,2 C 11,7 C 2,7 km/h (1 Bft)
03.06.2023 01:52 20,5 C 11,7 C 9,1 C 21,5 C 56 % 73 % 1024,7 hPa 0,0 l/m 0,8 km/h (0 Bft) NO 45 7,0 C 11,7 C 2,5 km/h (1 Bft)
03.06.2023 01:50 20,5 C 11,8 C 9,1 C 21,5 C 56 % 73 % 1024,7 hPa 0,0 l/m 0,6 km/h (0 Bft) NO 45 7,1 C 11,8 C 2,9 km/h (1 Bft)
03.06.2023 01:48 20,5 C 11,8 C 9,1 C 21,5 C 56 % 73 % 1024,7 hPa 0,0 l/m 0,6 km/h (0 Bft) O-NO 67 7,1 C 11,8 C 2,9 km/h (1 Bft)
03.06.2023 01:46 20,5 C 11,9 C 9,1 C 21,5 C 56 % 73 % 1025,3 hPa 0,0 l/m 0,6 km/h (0 Bft) NO 45 7,2 C 11,9 C 0,0 km/h (0 Bft)
03.06.2023 01:44 20,5 C 11,9 C 9,1 C 21,4 C 56 % 73 % 1025,3 hPa 0,0 l/m 0,8 km/h (0 Bft) NO 45 7,2 C 11,9 C 0,0 km/h (0 Bft)
03.06.2023 01:42 20,6 C 12,0 C 9,2 C 21,4 C 56 % 73 % 1025,3 hPa 0,0 l/m 1,1 km/h (1 Bft) O-NO 67 7,3 C 12,0 C 0,0 km/h (0 Bft)
03.06.2023 01:40 20,6 C 12,0 C 9,3 C 21,5 C 56 % 73 % 1025,3 hPa 0,0 l/m 1,4 km/h (1 Bft) NO 45 7,3 C 12,0 C 2,1 km/h (1 Bft)
03.06.2023 01:38 20,6 C 12,0 C 9,3 C 21,5 C 56 % 73 % 1025,3 hPa 0,0 l/m 1,8 km/h (1 Bft) NO 45 7,3 C 12,0 C 2,1 km/h (1 Bft)
03.06.2023 01:36 20,6 C 12,0 C 9,5 C 21,5 C 56 % 73 % 1025,3 hPa 0,0 l/m 1,8 km/h (1 Bft) N-NO 22 7,3 C 12,0 C 2,1 km/h (1 Bft)
03.06.2023 01:34 20,6 C 12,1 C 9,6 C 21,5 C 56 % 73 % 1025,3 hPa 0,0 l/m 2,1 km/h (1 Bft) N-NO 22 7,4 C 12,1 C 1,9 km/h (1 Bft)
03.06.2023 01:32 20,6 C 12,1 C 9,6 C 21,5 C 56 % 73 % 1025,3 hPa 0,0 l/m 2,1 km/h (1 Bft) NO 45 7,4 C 12,1 C 3,1 km/h (1 Bft)
03.06.2023 01:30 20,6 C 12,2 C 9,5 C 21,5 C 56 % 72 % 1025,3 hPa 0,0 l/m 2,1 km/h (1 Bft) NO 45 7,3 C 12,2 C 3,1 km/h (1 Bft)
03.06.2023 01:28 20,6 C 12,2 C 9,5 C 21,6 C 56 % 72 % 1025,3 hPa 0,0 l/m 1,6 km/h (1 Bft) NO 45 7,3 C 12,2 C 2,9 km/h (1 Bft)
03.06.2023 01:26 20,6 C 12,4 C 9,6 C 21,6 C 56 % 72 % 1025,0 hPa 0,0 l/m 1,3 km/h (1 Bft) NO 45 7,5 C 12,4 C 3,3 km/h (1 Bft)
03.06.2023 01:24 20,6 C 12,5 C 9,6 C 21,6 C 56 % 72 % 1025,0 hPa 0,0 l/m 1,1 km/h (1 Bft) N-NO 22 7,6 C 12,5 C 3,3 km/h (1 Bft)
03.06.2023 01:22 20,6 C 12,6 C 9,7 C 21,6 C 56 % 72 % 1025,0 hPa 0,0 l/m 1,0 km/h (0 Bft) N-NO 22 7,7 C 12,6 C 2,5 km/h (1 Bft)
03.06.2023 01:20 20,6 C 12,8 C 9,7 C 21,6 C 56 % 72 % 1025,0 hPa 0,0 l/m 1,0 km/h (0 Bft) N-NO 22 7,9 C 12,8 C 2,3 km/h (1 Bft)
03.06.2023 01:18 20,6 C 12,8 C 9,7 C 21,6 C 56 % 72 % 1025,0 hPa 0,0 l/m 1,0 km/h (0 Bft) NO 45 7,9 C 12,8 C 2,3 km/h (1 Bft)
03.06.2023 01:16 20,6 C 12,9 C 9,7 C 21,6 C 56 % 72 % 1025,0 hPa 0,0 l/m 1,3 km/h (1 Bft) NO 45 8,0 C 12,9 C 3,1 km/h (1 Bft)
03.06.2023 01:14 20,6 C 12,9 C 9,7 C 21,7 C 56 % 71 % 1025,0 hPa 0,0 l/m 1,4 km/h (1 Bft) NO 45 7,8 C 12,9 C 3,1 km/h (1 Bft)
03.06.2023 01:12 20,6 C 13,0 C 9,7 C 21,7 C 56 % 70 % 1025,0 hPa 0,0 l/m 1,4 km/h (1 Bft) NO 45 7,7 C 13,0 C 3,1 km/h (1 Bft)
03.06.2023 01:10 20,6 C 13,1 C 9,9 C 21,7 C 56 % 70 % 1025,0 hPa 0,0 l/m 1,1 km/h (1 Bft) O-NO 67 7,8 C 13,1 C 3,1 km/h (1 Bft)
03.06.2023 01:08 20,6 C 13,2 C 9,9 C 21,7 C 56 % 70 % 1025,0 hPa 0,0 l/m 1,4 km/h (1 Bft) NO 45 7,9 C 13,2 C 2,3 km/h (1 Bft)
03.06.2023 01:06 20,6 C 13,3 C 9,9 C 21,7 C 56 % 70 % 1025,1 hPa 0,0 l/m 1,4 km/h (1 Bft) NO 45 7,9 C 13,3 C 2,3 km/h (1 Bft)
03.06.2023 01:04 20,6 C 13,4 C 10,0 C 21,7 C 56 % 70 % 1025,1 hPa 0,0 l/m 1,6 km/h (1 Bft) N-NO 22 8,0 C 13,4 C 0,0 km/h (0 Bft)
03.06.2023 01:02 20,6 C 13,5 C 10,1 C 21,8 C 56 % 70 % 1025,1 hPa 0,0 l/m 1,4 km/h (1 Bft) N-NO 22 8,1 C 13,5 C 2,7 km/h (1 Bft)
03.06.2023 01:00 20,6 C 13,6 C 10,3 C 21,8 C 56 % 70 % 1025,1 hPa 0,0 l/m 1,4 km/h (1 Bft) N-NO 22 8,2 C 13,6 C 2,5 km/h (1 Bft)
03.06.2023 00:58 20,6 C 13,7 C 10,5 C 21,8 C 56 % 70 % 1025,1 hPa 0,0 l/m 1,4 km/h (1 Bft) N-NO 22 8,3 C 13,7 C 3,5 km/h (1 Bft)
03.06.2023 00:56 20,6 C 13,8 C 10,5 C 21,8 C 56 % 69 % 1025,1 hPa 0,0 l/m 1,6 km/h (1 Bft) NO 45 8,2 C 13,8 C 3,5 km/h (1 Bft)
03.06.2023 00:54 20,6 C 13,9 C 10,5 C 21,8 C 56 % 69 % 1025,1 hPa 0,0 l/m 1,6 km/h (1 Bft) NO 45 8,3 C 13,9 C 2,5 km/h (1 Bft)
03.06.2023 00:52 20,6 C 14,1 C 11,0 C 21,8 C 56 % 69 % 1025,1 hPa 0,0 l/m 1,6 km/h (1 Bft) NO 45 8,5 C 14,1 C 4,4 km/h (1 Bft)
03.06.2023 00:50 20,6 C 14,2 C 11,3 C 21,8 C 56 % 69 % 1025,1 hPa 0,0 l/m 2,1 km/h (1 Bft) O-NO 67 8,6 C 14,2 C 4,4 km/h (1 Bft)
03.06.2023 00:48 20,6 C 14,2 C 11,5 C 21,9 C 56 % 69 % 1025,1 hPa 0,0 l/m 2,6 km/h (1 Bft) NO 45 8,6 C 14,2 C 3,3 km/h (1 Bft)
03.06.2023 00:46 20,6 C 14,3 C 11,6 C 21,9 C 56 % 69 % 1025,1 hPa 0,0 l/m 2,9 km/h (1 Bft) NO 45 8,7 C 14,3 C 3,3 km/h (1 Bft)
03.06.2023 00:44 20,6 C 14,4 C 11,5 C 21,9 C 56 % 69 % 1025,1 hPa 0,0 l/m 2,9 km/h (1 Bft) O-NO 67 8,8 C 14,4 C 2,5 km/h (1 Bft)
03.06.2023 00:42 20,7 C 14,4 C 11,8 C 21,9 C 56 % 69 % 1025,1 hPa 0,0 l/m 3,1 km/h (1 Bft) NO 45 8,8 C 14,4 C 3,5 km/h (1 Bft)
03.06.2023 00:40 20,7 C 14,5 C 12,1 C 21,9 C 56 % 69 % 1025,1 hPa 0,0 l/m 3,4 km/h (1 Bft) NO 45 8,9 C 14,5 C 8,9 km/h (2 Bft)
03.06.2023 00:38 20,6 C 14,5 C 11,9 C 21,9 C 56 % 69 % 1025,1 hPa 0,0 l/m 3,5 km/h (1 Bft) O-NO 67 8,9 C 14,5 C 8,9 km/h (2 Bft)
03.06.2023 00:36 20,7 C 14,6 C 11,9 C 21,9 C 56 % 69 % 1025,1 hPa 0,0 l/m 3,5 km/h (1 Bft) O-NO 67 9,0 C 14,6 C 10,6 km/h (2 Bft)
03.06.2023 00:34 20,6 C 14,7 C 12,5 C 22,0 C 56 % 69 % 1025,1 hPa 0,0 l/m 3,9 km/h (1 Bft) NO 45 9,1 C 14,7 C 5,0 km/h (1 Bft)
03.06.2023 00:32 20,7 C 14,7 C 12,3 C 22,0 C 56 % 69 % 1025,1 hPa 0,0 l/m 3,9 km/h (1 Bft) W 270 9,1 C 14,7 C 6,4 km/h (2 Bft)
03.06.2023 00:30 20,7 C 14,7 C 12,2 C 21,9 C 56 % 69 % 1025,1 hPa 0,0 l/m 3,9 km/h (1 Bft) NO 45 9,1 C 14,7 C 10,6 km/h (2 Bft)
03.06.2023 00:28 20,7 C 14,7 C 12,4 C 21,9 C 56 % 69 % 1025,1 hPa 0,0 l/m 3,7 km/h (1 Bft) O-NO 67 9,1 C 14,7 C 10,6 km/h (2 Bft)
03.06.2023 00:26 20,7 C 14,8 C 12,5 C 21,9 C 56 % 69 % 1024,9 hPa 0,0 l/m 3,4 km/h (1 Bft) NO 45 9,2 C 14,8 C 8,3 km/h (2 Bft)
03.06.2023 00:24 20,7 C 14,7 C 12,1 C 21,9 C 56 % 69 % 1024,9 hPa 0,0 l/m 3,4 km/h (1 Bft) NO 45 9,1 C 14,7 C 5,2 km/h (1 Bft)
03.06.2023 00:22 20,7 C 14,8 C 11,9 C 21,9 C 56 % 69 % 1024,9 hPa 0,0 l/m 3,2 km/h (1 Bft) O-NO 67 9,2 C 14,8 C 3,9 km/h (1 Bft)
03.06.2023 00:20 20,7 C 14,9 C 12,3 C 22,0 C 56 % 69 % 1024,9 hPa 0,0 l/m 3,4 km/h (1 Bft) N-NO 22 9,3 C 14,9 C 4,2 km/h (1 Bft)
03.06.2023 00:18 20,7 C 15,0 C 12,5 C 22,0 C 56 % 69 % 1024,9 hPa 0,0 l/m 3,5 km/h (1 Bft) NO 45 9,4 C 15,0 C 4,2 km/h (1 Bft)
03.06.2023 00:16 20,7 C 15,0 C 12,4 C 22,0 C 56 % 69 % 1024,9 hPa 0,0 l/m 3,9 km/h (1 Bft) O-NO 67 9,4 C 15,0 C 7,7 km/h (2 Bft)
03.06.2023 00:14 20,7 C 15,0 C 12,7 C 22,0 C 56 % 68 % 1024,9 hPa 0,0 l/m 3,9 km/h (1 Bft) O-NO 67 9,1 C 15,0 C 7,7 km/h (2 Bft)
03.06.2023 00:12 20,7 C 15,1 C 12,9 C 22,0 C 56 % 68 % 1024,9 hPa 0,0 l/m 4,2 km/h (1 Bft) O-NO 67 9,2 C 15,1 C 7,7 km/h (2 Bft)
03.06.2023 00:10 20,7 C 15,2 C 13,3 C 22,1 C 56 % 68 % 1024,9 hPa 0,0 l/m 4,5 km/h (1 Bft) O-NO 67 9,3 C 15,2 C 5,2 km/h (1 Bft)
03.06.2023 00:08 20,7 C 15,3 C 13,3 C 22,1 C 56 % 68 % 1024,9 hPa 0,0 l/m 4,5 km/h (1 Bft) O-NO 67 9,4 C 15,3 C 5,2 km/h (1 Bft)
03.06.2023 00:06 20,7 C 15,3 C 13,3 C 22,1 C 56 % 68 % 1025,4 hPa 0,0 l/m 4,5 km/h (1 Bft) O-NO 67 9,4 C 15,3 C 5,2 km/h (1 Bft)
03.06.2023 00:04 20,7 C 15,3 C 13,3 C 22,1 C 56 % 68 % 1025,4 hPa 0,0 l/m 4,5 km/h (1 Bft) O-NO 67 9,4 C 15,3 C 5,2 km/h (1 Bft)
03.06.2023 00:02 20,7 C 15,3 C 13,3 C 22,1 C 56 % 68 % 1025,4 hPa 0,0 l/m 4,5 km/h (1 Bft) O-NO 67 9,4 C 15,3 C 5,2 km/h (1 Bft)
03.06.2023 00:00 20,7 C 15,4 C 13,6 C 22,1 C 56 % 68 % 1025,4 hPa 0,0 l/m 4,7 km/h (1 Bft) O-NO 67 9,5 C 15,4 C 6,4 km/h (2 Bft)
_ Min-Zeit 05:56 05:42 05:00 08:38 09:20 16:32 03:48 - 05:16 - - 05:16 05:42 01:04
Minimum _ 20,1 C 8,7 C 7,4 C 19,7 C 53 % 44 % 1024,4 hPa - 0,0 km/h (0 Bft) - - 5,4 C 8,7 C 0,0 km/h (0 Bft)
_ Max-Zeit 00:00 16:24 12:46 16:50 00:00 05:44 10:48 00:00 11:50 - - 13:46 16:24 12:56
Maximum _ 20,7 C 23,8 C 29,8 C 23,7 C 56 % 81 % 1026,1 hPa 0,0 l/m 9,3 km/h
O-SO (2 Bft)
- - 12,3 C 23,8 C 26,8 km/h
O-SO (4 Bft)
Durchschnitt _ 20,4 C 16,5 C 18,0 C 21,3 C 55 % 63 % 1025,2 hPa #0,0 l/m 4,3 km/h (1 Bft) O-NO - 9,1 C 16,4 C 7,5 km/h (2 Bft)